Latitude: N 50° 09' 49" Longitude: W 05° 11' 53" Elevation: 168m ASL

There are 22 visitors online

Adverts

<- Previous Day | Today | Next Day ->

All Data for 21 May 2019

Time
A - D
Temp
A - D
Dew Point
A - D
Humidity
A - D
Pressure
A - D
Wind
A - D
Wind Dir Gust
A - D
Rain Rate
A - D
Rain Total
00:00 10.4 5.8 73 1018.1 3.1 N 6.0 0.0 0.0
00:01 10.4 5.8 73 1018.1 3.1 N 6.0 0.0 0.0
00:02 10.4 5.8 73 1018.1 3.1 N 6.0 0.0 0.0
00:03 10.4 5.8 73 1018.1 3.1 N 6.0 0.0 0.0
00:04 10.4 5.8 73 1018.3 3.1 N 6.0 0.0 0.0
00:05 10.4 5.8 73 1018.2 3.1 N 5.4 0.0 0.0
00:06 10.5 6.1 74 1018.2 3.1 W 5.4 0.0 0.0
00:07 10.5 6.1 74 1018.3 3.8 N 5.4 0.0 0.0
00:08 10.5 6.1 74 1018.2 2.2 N 4.5 0.0 0.0
00:09 10.5 6.1 74 1018.2 3.8 NW 4.5 0.0 0.0
00:10 10.5 6.1 74 1018.3 3.8 NW 4.5 0.0 0.0
00:11 10.5 6.1 74 1018.2 4.5 S 5.4 0.0 0.0
00:12 10.5 6.1 74 1018.2 2.2 W 5.4 0.0 0.0
00:14 10.5 6.1 74 1018.3 6.9 N 6.9 0.0 0.0
00:15 10.5 6.1 74 1018.3 4.5 SE 6.9 0.0 0.0
00:16 10.5 6.1 74 1018.2 3.1 N 6.9 0.0 0.0
00:17 10.5 6.1 74 1018.1 4.5 NW 6.9 0.0 0.0
00:18 10.5 6.1 74 1018.2 3.8 NW 6.9 0.0 0.0
00:19 10.5 6.1 74 1018.0 3.1 W 6.9 0.0 0.0
00:20 10.5 6.1 74 1018.2 4.5 NW 6.9 0.0 0.0
00:21 10.5 6.1 74 1018.2 3.8 NW 6.9 0.0 0.0
00:22 10.5 6.1 74 1018.3 3.1 NW 6.9 0.0 0.0
00:23 10.5 6.1 74 1018.3 1.6 NW 6.9 0.0 0.0
00:24 10.5 6.1 74 1018.2 2.2 N 6.9 0.0 0.0
00:25 10.5 6.1 74 1018.3 3.8 NW 4.5 0.0 0.0
00:26 10.5 6.1 74 1018.3 3.1 W 4.5 0.0 0.0
00:27 10.5 6.1 74 1018.3 3.8 NW 4.5 0.0 0.0
00:28 10.5 6.3 75 1018.3 4.5 NE 4.5 0.0 0.0
00:29 10.5 6.1 74 1018.2 5.4 WNW 5.4 0.0 0.0
00:30 10.5 6.3 75 1018.2 3.8 NE 5.4 0.0 0.0
00:31 10.5 6.3 75 1018.2 3.8 N 5.4 0.0 0.0
00:33 10.5 6.3 75 1018.4 2.2 NW 5.4 0.0 0.0
00:34 10.5 6.3 75 1018.4 4.5 NW 5.4 0.0 0.0
00:35 10.5 6.3 75 1018.3 3.8 N 5.4 0.0 0.0
00:36 10.5 6.3 75 1018.3 3.8 W 5.4 0.0 0.0
00:37 10.4 6.2 75 1018.3 2.2 N 5.4 0.0 0.0
00:38 10.5 6.3 75 1018.3 3.1 NW 5.4 0.0 0.0
00:39 10.4 6.2 75 1018.2 3.1 S 4.5 0.0 0.0
00:40 10.4 6.2 75 1018.3 3.8 W 4.5 0.0 0.0
00:41 10.4 6.2 75 1018.3 3.1 NW 4.5 0.0 0.0
00:42 10.4 6.2 75 1018.3 1.6 NE 4.5 0.0 0.0
00:43 10.4 6.2 75 1018.4 4.5 NE 4.5 0.0 0.0
00:44 10.4 6.2 75 1018.2 4.5 N 4.5 0.0 0.0
00:45 10.4 6.2 75 1018.3 1.6 NW 4.5 0.0 0.0
00:46 10.4 6.2 75 1018.3 3.8 N 4.5 0.0 0.0
00:47 10.3 6.1 75 1018.3 2.2 NW 4.5 0.0 0.0
00:48 10.4 6.2 75 1018.5 3.1 NE 4.5 0.0 0.0
00:49 10.3 6.1 75 1018.3 3.8 W 4.5 0.0 0.0
00:50 10.3 6.1 75 1018.3 4.5 N 4.5 0.0 0.0
00:52 10.3 6.1 75 1018.2 4.5 N 4.5 0.0 0.0
00:53 10.3 6.3 76 1018.3 3.1 NW 4.5 0.0 0.0
00:54 10.3 6.3 76 1018.3 3.8 W 4.5 0.0 0.0
00:55 10.3 6.3 76 1018.4 5.4 N 5.4 0.0 0.0
00:56 10.3 6.3 76 1018.4 3.1 NW 5.4 0.0 0.0
00:57 10.3 6.3 76 1018.4 3.8 N 5.4 0.0 0.0
00:58 10.3 6.3 76 1018.4 3.8 N 5.4 0.0 0.0
00:59 10.3 6.3 76 1018.3 3.8 NW 5.4 0.0 0.0
01:00 10.3 6.3 76 1018.5 3.1 N 5.4 0.0 0.0
01:01 10.3 6.3 76 1018.4 3.1 N 5.4 0.0 0.0
01:02 10.3 6.3 76 1018.5 3.1 N 5.4 0.0 0.0
01:03 10.3 6.3 76 1018.5 3.1 N 5.4 0.0 0.0
01:04 10.3 6.3 76 1018.5 3.1 N 5.4 0.0 0.0
01:05 10.3 6.3 76 1018.3 3.1 N 5.4 0.0 0.0
01:06 10.2 6.2 76 1018.4 1.6 NW 5.4 0.0 0.0
01:07 10.2 6.2 76 1018.4 3.1 NW 5.4 0.0 0.0
01:08 10.2 6.2 76 1018.4 2.2 NW 5.4 0.0 0.0
01:09 10.2 6.2 76 1018.6 3.1 N 3.8 0.0 0.0
01:10 10.2 6.2 76 1018.5 3.8 NW 3.8 0.0 0.0
01:22 10.2 6.4 77 1018.4 3.8 W 5.4 0.0 0.0
01:23 10.2 6.4 77 1018.5 4.5 NW 5.4 0.0 0.0
01:24 10.2 6.4 77 1018.5 6.0 NW 7.6 0.0 0.0
01:25 10.2 6.4 77 1018.2 4.5 N 7.6 0.0 0.0
01:26 10.2 6.4 77 1018.3 3.8 NE 7.6 0.0 0.0
01:27 10.2 6.4 77 1018.5 3.1 N 7.6 0.0 0.0
01:28 10.2 6.4 77 1018.5 6.0 NW 7.6 0.0 0.0
01:29 10.1 6.3 77 1018.3 6.0 NW 7.6 0.0 0.0
01:30 10.2 6.4 77 1018.5 1.6 N 7.6 0.0 0.0
01:31 10.1 6.3 77 1018.4 3.1 NW 7.6 0.0 0.0
01:32 10.1 6.3 77 1018.5 3.1 N 7.6 0.0 0.0
01:33 10.1 6.3 77 1018.4 3.1 N 7.6 0.0 0.0
01:34 10.1 6.3 77 1018.4 2.2 N 7.6 0.0 0.0
01:35 10.1 6.3 77 1018.4 4.5 NW 6.0 0.0 0.0
01:36 10.1 6.3 77 1018.4 4.5 NW 6.0 0.0 0.0
01:37 10.1 6.4 78 1018.6 3.8 W 6.0 0.0 0.0
01:38 10.1 6.4 78 1018.6 2.2 NW 6.0 0.0 0.0
01:40 10.1 6.4 78 1018.6 2.2 N 4.5 0.0 0.0
01:41 10.1 6.4 78 1018.5 1.6 NW 4.5 0.0 0.0
01:42 10.1 6.4 78 1018.6 2.2 NW 4.5 0.0 0.0
01:43 10.1 6.4 78 1018.7 2.2 NW 4.5 0.0 0.0
01:44 10.1 6.4 78 1018.5 3.1 NW 4.5 0.0 0.0
01:45 10.1 6.4 78 1018.6 2.2 W 3.8 0.0 0.0
01:46 10.1 6.4 78 1018.6 2.2 W 3.8 0.0 0.0
01:47 10.1 6.4 78 1018.7 3.8 WNW 4.5 0.0 0.0
01:48 10.1 6.4 78 1018.5 6.9 WNW 6.9 0.0 0.0
01:49 10.1 6.4 78 1018.7 5.4 NW 6.9 0.0 0.0
01:50 10.1 6.4 78 1018.6 4.5 N 6.9 0.0 0.0
01:51 10.1 6.4 78 1018.5 3.1 N 6.9 0.0 0.0
01:52 10.1 6.6 79 1018.7 6.0 NW 6.9 0.0 0.0
01:53 10.1 6.6 79 1018.6 3.8 NW 6.9 0.0 0.0
01:54 10.1 6.6 79 1018.6 3.8 NE 6.9 0.0 0.0
01:55 10.1 6.6 79 1018.5 3.8 NE 6.9 0.0 0.0
01:56 10.1 6.6 79 1018.6 3.8 N 6.9 0.0 0.0
01:57 10.2 6.7 79 1018.6 3.1 NW 6.9 0.0 0.0
01:59 10.1 6.6 79 1018.6 4.5 N 6.0 0.0 0.0
02:00 10.1 6.6 79 1018.6 3.8 W 6.0 0.0 0.0
02:01 10.1 6.6 79 1018.5 3.8 W 6.0 0.0 0.0
02:02 10.1 6.6 79 1018.7 3.8 W 5.4 0.0 0.0
02:03 10.1 6.6 79 1018.5 3.8 W 5.4 0.0 0.0
02:04 10.1 6.6 79 1018.6 3.8 W 5.4 0.0 0.0
02:05 10.1 6.6 79 1018.6 3.8 W 5.4 0.0 0.0
02:06 10.2 6.7 79 1018.6 3.1 W 5.4 0.0 0.0
02:07 10.2 6.7 79 1018.7 3.8 NW 5.4 0.0 0.0
02:08 10.2 6.7 79 1018.5 1.6 NW 5.4 0.0 0.0
02:09 10.2 6.7 79 1018.6 1.6 N 4.5 0.0 0.0
02:10 10.2 6.7 79 1018.7 5.4 NW 5.4 0.0 0.0
02:11 10.2 6.7 79 1018.6 3.8 NW 5.4 0.0 0.0
02:12 10.2 6.7 79 1018.7 2.2 NW 5.4 0.0 0.0
02:13 10.2 6.7 79 1018.7 3.1 NW 5.4 0.0 0.0
02:14 10.2 6.7 79 1018.7 3.1 NW 5.4 0.0 0.0
02:15 10.2 6.9 80 1018.7 2.2 N 5.4 0.0 0.0
02:16 10.2 6.9 80 1018.5 2.2 N 5.4 0.0 0.0
02:17 10.2 6.9 80 1018.6 4.5 NW 5.4 0.0 0.0
02:19 10.2 6.9 80 1018.6 1.6 NW 5.4 0.0 0.0
02:20 10.1 6.8 80 1018.7 3.1 N 4.5 0.0 0.0
02:21 10.2 6.9 80 1018.5 0.7 NE 4.5 0.0 0.0
02:22 10.1 6.8 80 1018.6 1.6 N 4.5 0.0 0.0
02:23 10.1 6.8 80 1018.7 3.1 NW 4.5 0.0 0.0
02:24 10.1 6.8 80 1018.5 2.2 N 4.5 0.0 0.0
02:25 10.1 6.8 80 1018.5 2.2 N 4.5 0.0 0.0
02:26 10.1 6.8 80 1018.7 3.1 W 4.5 0.0 0.0
02:27 10.1 6.8 80 1018.7 3.1 NW 4.5 0.0 0.0
02:28 10.1 6.8 80 1018.8 2.2 NW 3.8 0.0 0.0
02:29 10.1 6.8 80 1018.6 1.6 N 3.8 0.0 0.0
02:30 10.0 6.7 80 1018.7 3.1 N 3.8 0.0 0.0
02:31 10.1 6.8 80 1018.7 0.0 NW 3.1 0.0 0.0
02:32 10.0 6.7 80 1018.7 0.0 N 3.1 0.0 0.0
02:33 10.0 6.7 80 1018.7 0.0 NW 3.1 0.0 0.0
02:34 10.0 6.7 80 1018.7 0.0 N 3.1 0.0 0.0
02:35 10.0 6.7 80 1018.7 3.8 NW 3.8 0.0 0.0
02:36 10.0 6.7 80 1018.7 1.6 NW 3.8 0.0 0.0
02:38 10.0 6.7 80 1018.7 2.2 NW 4.5 0.0 0.0
02:39 10.0 6.7 80 1018.8 3.1 NW 4.5 0.0 0.0
02:40 9.9 6.6 80 1018.8 2.2 NW 4.5 0.0 0.0
02:41 9.9 6.6 80 1018.8 1.6 NW 4.5 0.0 0.0
02:42 9.9 6.6 80 1018.9 2.2 E 4.5 0.0 0.0
02:43 9.9 6.6 80 1018.8 3.8 N 4.5 0.0 0.0
02:44 9.9 6.6 80 1018.7 3.1 W 4.5 0.0 0.0
02:45 9.9 6.6 80 1018.8 4.5 N 4.5 0.0 0.0
02:46 9.9 6.6 80 1018.8 3.8 NW 4.5 0.0 0.0
02:47 9.9 6.6 80 1018.8 1.6 N 4.5 0.0 0.0
02:48 9.9 6.6 80 1018.8 3.8 N 4.5 0.0 0.0
02:49 9.8 6.5 80 1018.9 4.5 N 4.5 0.0 0.0
02:50 9.8 6.5 80 1018.9 3.1 NW 4.5 0.0 0.0
02:51 9.8 6.5 80 1018.9 3.1 N 4.5 0.0 0.0
02:52 9.8 6.5 80 1018.7 3.1 N 4.5 0.0 0.0
02:53 9.8 6.5 80 1018.8 3.8 N 4.5 0.0 0.0
02:54 9.8 6.5 80 1018.7 3.8 N 4.5 0.0 0.0
02:55 9.8 6.5 80 1019.0 3.1 NW 4.5 0.0 0.0
02:56 9.8 6.5 80 1018.9 2.2 NW 4.5 0.0 0.0
02:58 9.8 6.5 80 1018.8 1.6 W 4.5 0.0 0.0
02:59 9.8 6.5 80 1018.8 3.1 NE 4.5 0.0 0.0
03:00 9.8 6.5 80 1018.9 2.2 NW 4.5 0.0 0.0
03:01 9.8 6.5 80 1019.0 2.2 NW 3.8 0.0 0.0
03:02 9.8 6.5 80 1019.0 2.2 NW 3.8 0.0 0.0
03:03 9.8 6.5 80 1018.9 2.2 NW 3.8 0.0 0.0
03:04 9.8 6.5 80 1018.9 2.2 NW 3.8 0.0 0.0
03:05 9.8 6.7 81 1018.9 3.8 NW 3.8 0.0 0.0
03:06 9.8 6.7 81 1018.7 1.6 NW 3.8 0.0 0.0
03:07 9.7 6.6 81 1018.9 3.1 NW 3.8 0.0 0.0
03:08 9.7 6.6 81 1018.8 2.2 NW 3.8 0.0 0.0
03:09 9.7 6.6 81 1018.9 1.6 W 3.8 0.0 0.0
03:10 9.7 6.6 81 1018.9 1.6 N 3.8 0.0 0.0
03:11 9.7 6.6 81 1019.0 0.7 N 3.8 0.0 0.0
03:12 9.7 6.6 81 1019.0 0.7 NW 3.8 0.0 0.0
03:13 9.7 6.6 81 1018.9 2.2 N 3.8 0.0 0.0
03:14 9.7 6.6 81 1019.0 3.8 NE 3.8 0.0 0.0
03:15 9.7 6.6 81 1019.0 2.2 N 3.8 0.0 0.0
03:16 9.6 6.5 81 1018.8 3.1 NW 3.8 0.0 0.0
03:17 9.6 6.5 81 1019.0 1.6 NW 3.8 0.0 0.0
03:18 9.6 6.5 81 1019.0 1.6 N 3.8 0.0 0.0
03:19 9.6 6.5 81 1019.0 0.0 N 3.8 0.0 0.0
03:20 9.6 6.5 81 1019.0 0.0 NW 3.8 0.0 0.0
03:22 9.6 6.5 81 1019.1 1.6 NW 3.8 0.0 0.0
03:23 9.5 6.4 81 1018.9 3.1 E 3.8 0.0 0.0
03:24 9.5 6.4 81 1019.0 1.6 NW 3.8 0.0 0.0
03:25 9.5 6.4 81 1018.9 3.1 N 3.1 0.0 0.0
03:26 9.5 6.4 81 1018.9 3.1 N 3.1 0.0 0.0
03:27 9.5 6.4 81 1019.0 0.0 N 3.1 0.0 0.0
03:28 9.5 6.4 81 1018.9 0.0 ENE 3.1 0.0 0.0
03:29 9.5 6.4 81 1018.9 0.0 N 3.1 0.0 0.0
03:30 9.5 6.4 81 1018.9 2.2 NW 3.1 0.0 0.0
03:31 9.4 6.3 81 1018.9 2.2 W 3.1 0.0 0.0
03:32 9.4 6.3 81 1018.9 0.0 N 3.1 0.0 0.0
03:33 9.4 6.3 81 1019.0 0.0 W 3.1 0.0 0.0
03:34 9.4 6.3 81 1018.9 0.0 N 3.1 0.0 0.0
03:35 9.4 6.3 81 1019.0 0.0 NE 3.1 0.0 0.0
03:36 9.4 6.3 81 1018.9 0.0 NW 3.1 0.0 0.0
03:37 9.4 6.3 81 1018.9 1.6 NW 2.2 0.0 0.0
03:38 9.4 6.3 81 1018.9 0.0 W 2.2 0.0 0.0
03:39 9.4 6.3 81 1018.9 0.0 NE 2.2 0.0 0.0
03:40 9.3 6.2 81 1019.0 3.1 NW 3.8 0.0 0.0
03:41 9.3 6.2 81 1018.8 2.2 NW 3.8 0.0 0.0
03:42 9.3 6.2 81 1018.9 0.0 N 3.8 0.0 0.0
03:43 9.3 6.2 81 1018.9 1.6 N 3.8 0.0 0.0
03:44 9.3 6.2 81 1018.8 0.0 NW 3.8 0.0 0.0
03:45 9.3 6.2 81 1018.8 0.0 N 3.8 0.0 0.0
03:46 9.3 6.2 81 1018.9 0.0 E 3.8 0.0 0.0
03:47 9.3 6.2 81 1018.9 0.0 NW 3.8 0.0 0.0
03:49 9.2 6.1 81 1018.9 0.0 N 3.8 0.0 0.0
03:50 9.2 6.1 81 1018.9 0.0 N 3.1 0.0 0.0
03:51 9.2 6.1 81 1018.8 0.0 N 2.2 0.0 0.0
03:52 9.2 6.1 81 1018.9 0.0 NW 1.6 0.0 0.0
03:53 9.2 6.1 81 1018.9 0.0 NW 1.6 0.0 0.0
03:54 9.2 6.1 81 1018.9 0.0 N 0.0 0.0 0.0
03:55 9.2 6.1 81 1018.9 0.0 NW 0.0 0.0 0.0
03:56 9.2 6.3 82 1018.9 0.0 N 0.0 0.0 0.0
03:57 9.2 6.1 81 1018.9 0.0 NW 0.0 0.0 0.0
03:58 9.1 6.0 81 1018.9 0.0 NW 0.0 0.0 0.0
03:59 9.1 6.0 81 1018.9 0.0 N 0.0 0.0 0.0
04:00 9.1 6.0 81 1018.7 0.0 NW 0.0 0.0 0.0
04:01 9.1 6.0 81 1018.9 0.0 NW 0.0 0.0 0.0
04:02 9.1 6.0 81 1018.8 0.0 NW 0.0 0.0 0.0
04:03 9.1 6.0 81 1018.9 0.0 NW 0.0 0.0 0.0
04:04 9.1 6.0 81 1018.8 0.0 NW 0.0 0.0 0.0
04:05 9.1 6.0 81 1018.9 0.0 NW 0.0 0.0 0.0
04:06 9.1 6.0 81 1018.8 0.0 NW 0.0 0.0 0.0
04:08 9.0 6.1 82 1018.8 0.0 NW 0.0 0.0 0.0
04:09 9.0 6.1 82 1018.8 0.0 N 0.0 0.0 0.0
04:10 9.0 6.1 82 1018.8 0.0 W 0.0 0.0 0.0
04:11 9.0 6.1 82 1019.0 0.0 WSW 0.0 0.0 0.0
04:12 9.0 6.1 82 1019.0 0.0 SE 0.0 0.0 0.0
04:13 9.0 6.1 82 1019.0 0.0 NE 0.0 0.0 0.0
04:14 9.0 6.1 82 1019.0 0.0 NE 0.0 0.0 0.0
04:15 9.0 6.1 82 1019.0 0.0 NNE 0.0 0.0 0.0
04:16 9.0 6.1 82 1018.9 0.0 N 0.0 0.0 0.0
04:17 8.9 6.0 82 1019.0 0.0 N 0.0 0.0 0.0
04:18 8.9 6.0 82 1019.0 0.0 E 0.0 0.0 0.0
04:19 8.9 6.0 82 1019.0 0.0 NW 0.0 0.0 0.0
04:20 8.9 6.0 82 1018.9 3.1 N 3.1 0.0 0.0
04:21 8.9 6.0 82 1018.9 2.2 N 3.1 0.0 0.0
04:22 8.9 6.0 82 1018.8 1.6 NW 3.1 0.0 0.0
04:23 8.9 6.0 82 1018.8 0.7 SW 3.1 0.0 0.0
04:24 8.9 6.0 82 1019.0 0.0 N 3.1 0.0 0.0
04:25 8.9 6.0 82 1018.9 0.0 N 3.1 0.0 0.0
04:27 8.8 5.9 82 1018.8 0.0 N 3.1 0.0 0.0
04:28 8.8 5.9 82 1019.0 0.0 N 3.1 0.0 0.0
04:29 8.8 5.9 82 1018.9 0.0 N 3.1 0.0 0.0
04:30 8.8 5.9 82 1019.0 0.0 NE 2.2 0.0 0.0
04:31 8.8 5.9 82 1019.0 0.0 NE 1.6 0.0 0.0
04:32 8.8 5.9 82 1018.9 0.0 NE 1.6 0.0 0.0
04:33 8.8 5.9 82 1018.8 0.0 E 0.7 0.0 0.0
04:34 8.8 5.9 82 1018.9 0.0 SW 0.0 0.0 0.0
04:35 8.8 5.9 82 1018.8 3.8 N 3.8 0.0 0.0
04:36 8.8 5.9 82 1018.7 3.8 W 3.8 0.0 0.0
04:37 8.8 5.9 82 1018.9 0.7 NW 3.8 0.0 0.0
04:38 8.8 5.9 82 1018.8 0.0 NW 3.8 0.0 0.0
04:39 8.8 5.9 82 1018.9 0.0 NE 3.8 0.0 0.0
04:40 8.8 5.9 82 1019.0 0.7 SE 3.8 0.0 0.0
04:41 8.8 5.9 82 1018.9 0.7 N 3.8 0.0 0.0
04:42 8.8 5.9 82 1018.9 0.0 W 3.8 0.0 0.0
04:44 8.8 5.9 82 1018.7 1.6 NE 3.8 0.0 0.0
04:45 8.8 5.9 82 1018.9 1.6 NW 3.8 0.0 0.0
04:46 8.7 5.8 82 1018.9 2.2 NW 2.2 0.0 0.0
04:47 8.7 5.8 82 1018.9 0.7 NE 2.2 0.0 0.0
04:48 8.7 5.8 82 1018.9 0.0 NW 2.2 0.0 0.0
04:49 8.7 5.8 82 1019.0 0.0 W 2.2 0.0 0.0
04:50 8.7 5.8 82 1019.0 0.7 NW 2.2 0.0 0.0
04:51 8.7 5.8 82 1018.9 0.7 N 2.2 0.0 0.0
04:52 8.7 5.8 82 1018.9 0.7 NW 2.2 0.0 0.0
04:53 8.7 5.8 82 1019.0 0.0 NE 2.2 0.0 0.0
04:54 8.7 5.8 82 1018.9 0.0 NW 2.2 0.0 0.0
04:55 8.7 5.8 82 1019.0 0.0 NW 2.2 0.0 0.0
04:56 8.7 5.8 82 1018.9 0.7 N 2.2 0.0 0.0
04:57 8.7 5.8 82 1018.9 0.0 N 0.7 0.0 0.0
04:58 8.7 5.8 82 1018.9 0.0 W 0.7 0.0 0.0
05:00 8.7 5.8 82 1019.0 0.0 NE 0.7 0.0 0.0
05:01 8.7 5.8 82 1019.1 0.0 NE 0.7 0.0 0.0
05:02 8.7 5.8 82 1019.0 0.0 NE 0.7 0.0 0.0
05:03 8.7 5.8 82 1019.0 0.0 NE 0.7 0.0 0.0
05:04 8.7 5.8 82 1019.1 0.0 NW 0.7 0.0 0.0
05:05 8.7 5.8 82 1019.1 0.0 NW 0.7 0.0 0.0
05:06 8.6 5.7 82 1019.1 0.0 SW 0.7 0.0 0.0
05:07 8.6 5.7 82 1019.0 0.7 N 0.7 0.0 0.0
05:08 8.6 5.7 82 1018.9 0.0 NW 0.7 0.0 0.0
05:09 8.6 5.7 82 1019.1 1.6 NW 1.6 0.0 0.0
05:10 8.6 5.7 82 1019.0 1.6 NE 1.6 0.0 0.0
05:11 8.6 5.7 82 1019.1 0.0 NW 1.6 0.0 0.0
05:12 8.6 5.7 82 1019.0 0.0 N 1.6 0.0 0.0
05:13 8.6 5.7 82 1019.1 0.0 NE 1.6 0.0 0.0
05:14 8.6 5.7 82 1019.1 1.6 NE 1.6 0.0 0.0
05:15 8.6 5.7 82 1019.1 0.7 NW 1.6 0.0 0.0
05:16 8.6 5.7 82 1019.1 1.6 NW 1.6 0.0 0.0
05:18 8.6 5.7 82 1019.1 0.7 SW 1.6 0.0 0.0
05:19 8.6 5.9 83 1019.2 1.6 NW 1.6 0.0 0.0
05:20 8.6 5.9 83 1019.0 0.7 N 1.6 0.0 0.0
05:21 8.6 5.9 83 1019.0 0.7 N 1.6 0.0 0.0
05:22 8.6 5.9 83 1019.1 0.0 E 1.6 0.0 0.0
05:23 8.6 5.9 83 1019.2 1.6 W 1.6 0.0 0.0
05:24 8.6 5.9 83 1019.1 0.0 NE 1.6 0.0 0.0
05:25 8.6 5.9 83 1019.0 0.7 N 1.6 0.0 0.0
05:26 8.6 5.9 83 1019.1 0.7 ENE 1.6 0.0 0.0
05:27 8.6 5.9 83 1019.1 0.7 NW 1.6 0.0 0.0
05:28 8.6 5.9 83 1019.1 0.0 N 1.6 0.0 0.0
05:29 8.6 5.9 83 1019.2 0.0 NW 1.6 0.0 0.0
05:30 8.6 5.9 83 1019.2 0.0 NW 1.6 0.0 0.0
05:31 8.6 5.9 83 1019.2 0.0 N 1.6 0.0 0.0
05:32 8.6 5.9 83 1019.1 0.0 NW 1.6 0.0 0.0
05:34 8.6 5.9 83 1019.1 0.0 NW 0.7 0.0 0.0
05:35 8.6 5.9 83 1019.1 0.0 S 0.7 0.0 0.0
05:36 8.6 5.9 83 1019.1 0.0 N 0.7 0.0 0.0
05:37 8.6 5.9 83 1019.1 0.0 N 0.7 0.0 0.0
05:38 8.6 5.9 83 1019.1 0.0 E 0.0 0.0 0.0
05:39 8.6 5.9 83 1019.2 0.0 SW 0.0 0.0 0.0
05:40 8.6 5.9 83 1019.2 0.0 NW 0.0 0.0 0.0
05:41 8.6 5.9 83 1019.2 0.0 S 0.0 0.0 0.0
05:42 8.6 5.9 83 1019.1 0.0 N 0.0 0.0 0.0
05:43 8.6 5.9 83 1019.2 0.0 W 0.0 0.0 0.0
05:44 8.6 5.9 83 1019.1 0.0 N 0.0 0.0 0.0
05:45 8.6 5.9 83 1019.2 0.0 N 0.0 0.0 0.0
05:46 8.6 5.9 83 1019.2 0.0 NW 0.0 0.0 0.0
05:47 8.6 5.9 83 1019.2 0.0 NW 0.0 0.0 0.0
05:48 8.6 5.9 83 1019.2 0.0 NE 0.0 0.0 0.0
05:49 8.6 5.9 83 1019.3 0.0 E 0.0 0.0 0.0
05:50 8.6 5.9 83 1019.2 0.0 W 0.0 0.0 0.0
05:51 8.6 5.9 83 1019.1 0.0 SE 0.0 0.0 0.0
05:53 8.6 5.9 83 1019.3 0.0 N 0.0 0.0 0.0
05:54 8.6 5.9 83 1019.2 0.0 SE 0.0 0.0 0.0
05:55 8.6 5.9 83 1019.2 0.7 NW 0.7 0.0 0.0
05:56 8.6 5.9 83 1019.3 0.0 NW 0.7 0.0 0.0
05:57 8.6 5.9 83 1019.3 0.7 N 0.7 0.0 0.0
05:58 8.7 6.1 84 1019.3 1.6 E 1.6 0.0 0.0
05:59 8.7 6.1 84 1019.2 3.1 NE 3.1 0.0 0.0
06:00 8.7 6.1 84 1019.3 3.1 NE 3.1 0.0 0.0
06:01 8.7 6.1 84 1019.2 3.1 NE 3.1 0.0 0.0
06:02 8.7 6.1 84 1019.3 3.1 NE 3.1 0.0 0.0
06:03 8.7 6.1 84 1019.2 3.1 NE 3.1 0.0 0.0
06:04 8.7 6.1 84 1019.2 3.1 NE 3.1 0.0 0.0
06:05 8.7 6.1 84 1019.4 0.0 NE 3.1 0.0 0.0
06:06 8.7 6.1 84 1019.2 0.0 N 3.1 0.0 0.0
06:07 8.7 6.1 84 1019.1 0.0 NE 3.1 0.0 0.0
06:08 8.8 6.2 84 1019.3 0.0 NW 3.1 0.0 0.0
06:09 8.8 6.2 84 1019.3 0.7 W 3.1 0.0 0.0
06:10 8.7 6.1 84 1019.4 3.1 NW 3.1 0.0 0.0
06:12 8.8 6.2 84 1019.1 2.2 SE 3.1 0.0 0.0
06:13 8.8 6.2 84 1019.2 3.1 N 3.1 0.0 0.0
06:14 8.8 6.2 84 1019.4 0.0 NW 3.1 0.0 0.0
06:15 8.8 6.2 84 1019.2 2.2 NW 3.1 0.0 0.0
06:16 8.8 6.2 84 1019.2 1.6 NE 3.1 0.0 0.0
06:17 8.9 6.3 84 1019.3 2.2 NW 3.1 0.0 0.0
06:18 8.8 6.2 84 1019.2 1.6 NW 3.1 0.0 0.0
06:19 8.8 6.2 84 1019.2 0.0 NW 3.1 0.0 0.0
06:20 8.9 6.3 84 1019.2 3.1 NW 3.1 0.0 0.0
06:21 8.9 6.3 84 1019.2 2.2 NW 3.1 0.0 0.0
06:22 8.9 6.3 84 1019.3 2.2 W 3.1 0.0 0.0
06:23 8.9 6.3 84 1019.4 3.1 E 3.1 0.0 0.0
06:24 8.9 6.3 84 1019.3 2.2 NW 3.1 0.0 0.0
06:25 9.0 6.4 84 1019.4 0.7 NE 3.1 0.0 0.0
06:27 8.9 6.3 84 1019.3 0.7 ENE 3.1 0.0 0.0
06:28 9.0 6.6 85 1019.4 0.0 NE 3.1 0.0 0.0
06:29 9.0 6.6 85 1019.4 0.0 NE 3.1 0.0 0.0
06:30 9.0 6.4 84 1019.3 0.0 NW 3.1 0.0 0.0
06:31 9.0 6.6 85 1019.4 0.0 NW 3.1 0.0 0.0
06:32 9.0 6.6 85 1019.5 0.0 SW 3.1 0.0 0.0
06:33 9.0 6.4 84 1019.3 1.6 N 3.1 0.0 0.0
06:34 9.0 6.4 84 1019.5 2.2 NNW 2.2 0.0 0.0
06:35 9.0 6.6 85 1019.3 0.7 NE 3.1 0.0 0.0
06:36 9.1 6.7 85 1019.4 1.6 N 3.1 0.0 0.0
06:37 9.1 6.7 85 1019.5 2.2 W 3.8 0.0 0.0
06:38 9.1 6.7 85 1019.5 1.6 N 3.8 0.0 0.0
06:39 9.1 6.7 85 1019.5 0.0 NW 3.8 0.0 0.0
06:40 9.1 6.7 85 1019.5 3.8 NE 3.8 0.0 0.0
06:42 9.1 6.7 85 1019.5 0.7 E 3.8 0.0 0.0
06:43 9.1 6.7 85 1019.5 0.0 W 3.8 0.0 0.0
06:44 9.1 6.7 85 1019.5 0.0 W 3.8 0.0 0.0
06:45 9.1 6.7 85 1019.6 0.0 NE 3.8 0.0 0.0
06:46 9.2 6.8 85 1019.6 3.8 NE 3.8 0.0 0.0
06:47 9.2 6.8 85 1019.5 2.2 NW 3.8 0.0 0.0
06:48 9.2 6.8 85 1019.6 3.1 N 3.8 0.0 0.0
06:49 9.2 6.8 85 1019.6 1.6 E 3.8 0.0 0.0
06:50 9.2 6.8 85 1019.6 5.4 N 5.4 0.0 0.0
06:51 9.2 6.8 85 1019.7 0.0 N 5.4 0.0 0.0
06:52 9.3 6.9 85 1019.6 0.0 N 5.4 0.0 0.0
06:53 9.3 6.9 85 1019.6 0.7 NW 5.4 0.0 0.0
06:54 9.3 6.9 85 1019.6 3.1 NE 5.4 0.0 0.0
06:55 9.3 6.9 85 1019.7 3.1 W 5.4 0.0 0.0
06:56 9.3 6.9 85 1019.6 3.1 SW 5.4 0.0 0.0
06:58 9.4 7.0 85 1019.8 3.1 N 5.4 0.0 0.0
06:59 9.4 7.0 85 1019.7 2.2 NW 5.4 0.0 0.0
07:00 9.4 7.0 85 1019.6 0.0 NE 4.5 0.0 0.0
07:01 9.4 7.0 85 1019.8 0.0 SE 3.1 0.0 0.0
07:02 9.4 7.0 85 1019.8 0.0 SE 3.1 0.0 0.0
07:03 9.5 7.1 85 1019.8 2.2 N 3.8 0.0 0.0
07:04 9.5 7.1 85 1019.5 0.0 NW 3.8 0.0 0.0
07:05 9.5 7.1 85 1019.6 3.1 NE 3.8 0.0 0.0
07:06 9.5 7.1 85 1019.7 3.1 WSW 3.8 0.0 0.0
07:07 9.6 7.2 85 1019.7 0.7 N 3.8 0.0 0.0
07:08 9.6 7.2 85 1019.6 1.6 NW 3.8 0.0 0.0
07:09 9.6 7.4 86 1019.6 0.0 NE 3.8 0.0 0.0
07:10 9.7 7.3 85 1019.7 2.2 NNE 3.8 0.0 0.0
07:11 9.7 7.5 86 1019.6 3.1 NW 3.8 0.0 0.0
07:12 9.7 7.5 86 1019.7 0.7 N 3.8 0.0 0.0
07:13 9.7 7.5 86 1019.6 0.7 NNE 3.1 0.0 0.0
07:14 9.8 7.6 86 1019.8 1.6 N 3.1 0.0 0.0
07:16 9.8 7.6 86 1019.8 1.6 NW 4.5 0.0 0.0
07:17 9.8 7.6 86 1019.7 3.1 NW 4.5 0.0 0.0
07:18 9.8 7.6 86 1019.7 3.1 NW 4.5 0.0 0.0
07:19 9.9 7.7 86 1019.9 1.6 NW 5.4 0.0 0.0
07:20 9.9 7.7 86 1019.7 4.5 N 5.4 0.0 0.0
07:21 9.9 7.7 86 1019.7 2.2 N 5.4 0.0 0.0
07:22 9.9 7.7 86 1019.8 3.8 NW 5.4 0.0 0.0
07:23 9.9 7.7 86 1019.8 1.6 NW 5.4 0.0 0.0
07:24 10.0 7.8 86 1019.8 3.1 NW 5.4 0.0 0.0
07:25 10.0 7.8 86 1019.7 3.1 NE 5.4 0.0 0.0
07:26 10.0 7.8 86 1019.8 3.8 NE 5.4 0.0 0.0
07:27 10.0 7.8 86 1020.0 3.8 NE 5.4 0.0 0.0
07:28 10.0 7.8 86 1019.9 6.9 NE 6.9 0.0 0.0
07:29 10.1 7.9 86 1019.8 3.8 N 6.9 0.0 0.0
07:30 10.1 7.9 86 1019.9 3.8 NW 6.9 0.0 0.0
07:32 10.1 7.9 86 1020.0 6.0 N 6.9 0.0 0.0
07:33 10.1 7.9 86 1020.0 2.2 NW 6.9 0.0 0.0
07:34 10.2 8.0 86 1019.9 2.2 NE 6.9 0.0 0.0
07:35 10.2 8.0 86 1020.0 4.5 NE 6.9 0.0 0.0
07:36 10.2 8.0 86 1020.0 0.0 NE 6.9 0.0 0.0
07:37 10.2 8.0 86 1020.0 0.0 N 6.9 0.0 0.0
07:38 10.2 8.0 86 1020.1 3.1 NE 6.9 0.0 0.0
07:39 10.3 8.1 86 1020.0 5.4 NE 6.0 0.0 0.0
07:40 10.3 8.1 86 1020.1 0.0 W 6.0 0.0 0.0
07:41 10.3 8.1 86 1020.0 3.1 NE 6.0 0.0 0.0
07:42 10.3 7.9 85 1020.1 6.0 NE 6.0 0.0 0.0
07:43 10.3 7.9 85 1020.2 4.5 NE 6.0 0.0 0.0
07:44 10.4 8.0 85 1020.0 2.2 NE 6.0 0.0 0.0
07:45 10.4 8.0 85 1020.1 7.6 W 7.6 0.0 0.0
07:46 10.4 8.0 85 1020.1 4.5 NE 7.6 0.0 0.0
07:47 10.4 8.0 85 1020.1 5.4 W 7.6 0.0 0.0
07:48 10.5 8.1 85 1020.1 5.4 NE 7.6 0.0 0.0
07:49 10.5 8.1 85 1020.0 3.8 NW 7.6 0.0 0.0
07:50 10.5 8.1 85 1020.0 6.9 NE 7.6 0.0 0.0
07:52 10.6 8.2 85 1020.0 3.8 S 7.6 0.0 0.0
07:53 10.6 8.2 85 1020.0 1.6 SW 7.6 0.0 0.0
07:54 10.6 8.2 85 1020.0 3.1 NE 7.6 0.0 0.0
07:55 10.6 8.2 85 1020.1 6.0 NW 7.6 0.0 0.0
07:56 10.7 8.3 85 1020.2 3.8 N 8.3 0.0 0.0
07:57 10.7 8.3 85 1020.1 3.8 NW 8.3 0.0 0.0
07:58 10.7 8.3 85 1020.0 6.0 N 8.3 0.0 0.0
07:59 10.7 8.1 84 1020.2 4.5 NE 8.3 0.0 0.0
08:00 10.7 8.1 84 1020.1 3.8 NW 8.3 0.0 0.0
08:01 10.7 8.1 84 1020.1 3.8 NW 8.3 0.0 0.0
08:02 10.8 8.2 84 1020.2 2.2 E 8.3 0.0 0.0
08:03 10.7 8.1 84 1020.0 3.1 NE 8.3 0.0 0.0
08:04 10.8 8.2 84 1020.0 4.5 NW 8.3 0.0 0.0
08:05 10.8 8.2 84 1020.0 4.5 NW 8.3 0.0 0.0
08:06 10.9 8.3 84 1020.0 4.5 NE 8.3 0.0 0.0
08:07 10.8 8.2 84 1020.2 3.1 N 6.0 0.0 0.0
08:08 10.9 8.3 84 1020.0 7.6 N 7.6 0.0 0.0
08:09 10.9 8.3 84 1020.1 3.8 N 7.6 0.0 0.0
08:10 11.0 8.2 83 1020.1 3.8 NE 7.6 0.0 0.0
08:11 11.0 8.2 83 1020.1 5.4 E 7.6 0.0 0.0
08:12 11.0 8.2 83 1020.1 6.0 NE 7.6 0.0 0.0
08:14 11.0 8.2 83 1020.1 6.0 NW 7.6 0.0 0.0
08:15 11.0 8.2 83 1020.2 3.8 NW 7.6 0.0 0.0
08:16 11.1 8.3 83 1020.1 6.9 S 7.6 0.0 0.0
08:17 11.1 8.3 83 1020.3 7.6 N 7.6 0.0 0.0
08:18 11.1 8.3 83 1020.2 4.5 NE 7.6 0.0 0.0
08:19 11.2 8.4 83 1020.2 5.4 NW 7.6 0.0 0.0
08:20 11.1 8.3 83 1020.1 3.1 NNE 7.6 0.0 0.0
08:21 11.2 8.4 83 1020.1 7.6 NW 7.6 0.0 0.0
08:22 11.2 8.2 82 1020.2 6.0 ENE 8.3 0.0 0.0
08:23 11.2 8.2 82 1020.3 6.0 N 8.3 0.0 0.0
08:24 11.2 8.2 82 1020.1 6.0 N 8.3 0.0 0.0
08:25 11.3 8.3 82 1020.1 6.0 N 8.3 0.0 0.0
08:26 11.3 8.3 82 1020.1 5.4 N 8.3 0.0 0.0
08:27 11.3 8.3 82 1020.2 3.8 NW 8.3 0.0 0.0
08:28 11.3 8.3 82 1020.1 3.1 NW 8.3 0.0 0.0
08:29 11.3 8.3 82 1020.2 4.5 N 8.3 0.0 0.0
08:31 11.3 8.2 81 1020.2 6.9 WNW 8.3 0.0 0.0
08:32 11.4 8.3 81 1020.3 4.5 NW 6.9 0.0 0.0
08:33 11.4 8.3 81 1020.1 5.4 WNW 6.9 0.0 0.0
08:34 11.4 8.3 81 1020.1 5.4 NW 6.9 0.0 0.0
08:35 11.4 8.3 81 1020.0 5.4 N 6.9 0.0 0.0
08:36 11.5 8.4 81 1020.0 5.4 NE 6.9 0.0 0.0
08:37 11.5 8.4 81 1020.0 4.5 NW 6.9 0.0 0.0
08:38 11.5 8.2 80 1020.0 6.9 NW 8.3 0.0 0.0
08:39 11.5 8.2 80 1020.2 4.5 N 8.3 0.0 0.0
08:40 11.5 8.2 80 1020.2 5.4 N 8.3 0.0 0.0
08:41 11.6 8.3 80 1019.9 6.0 E 8.3 0.0 0.0
08:42 11.6 8.3 80 1020.0 7.6 E 8.3 0.0 0.0
08:43 11.7 8.4 80 1020.1 6.0 N 8.3 0.0 0.0
08:44 11.7 8.4 80 1020.0 6.9 NE 8.3 0.0 0.0
08:45 11.7 8.4 80 1020.1 6.9 WNW 8.3 0.0 0.0
08:46 11.8 8.3 79 1020.2 6.0 E 8.3 0.0 0.0
08:48 11.8 8.3 79 1020.2 9.2 NW 9.2 0.0 0.0
08:49 11.9 8.4 79 1020.1 6.0 NE 9.2 0.0 0.0
08:50 11.9 8.4 79 1020.3 6.0 NE 9.2 0.0 0.0
08:51 11.9 8.4 79 1020.3 6.9 N 9.2 0.0 0.0
08:52 12.0 8.5 79 1020.3 6.0 N 9.2 0.0 0.0
08:53 12.0 8.3 78 1020.2 3.8 NW 9.2 0.0 0.0
08:54 12.1 8.4 78 1020.1 6.9 N 12.1 0.0 0.0
08:55 12.1 8.4 78 1020.4 6.0 N 12.1 0.0 0.0
08:56 12.1 8.4 78 1020.2 10.7 N 12.1 0.0 0.0
08:57 12.1 8.4 78 1020.2 9.8 NW 12.1 0.0 0.0
08:58 12.2 8.3 77 1020.2 6.9 NE 12.1 0.0 0.0
08:59 12.3 8.4 77 1020.3 6.0 NW 12.1 0.0 0.0
09:00 12.3 8.4 77 1020.3 6.0 NW 12.1 0.0 0.0
09:01 12.4 8.5 77 1020.4 8.3 NW 12.1 0.0 0.0
09:02 12.4 8.5 77 1020.1 6.9 NW 12.1 0.0 0.0
09:03 12.5 8.4 76 1020.3 6.0 NE 10.7 0.0 0.0
09:04 12.5 8.4 76 1020.5 4.5 NE 10.7 0.0 0.0
09:06 12.6 8.5 76 1020.4 3.8 W 9.8 0.0 0.0
09:07 12.7 8.6 76 1020.2 6.0 NW 9.2 0.0 0.0
09:08 12.7 8.6 76 1020.3 6.9 W 9.2 0.0 0.0
09:09 12.7 8.6 76 1020.3 6.9 W 9.2 0.0 0.0
09:10 12.8 8.5 75 1020.4 9.2 WNW 9.2 0.0 0.0
09:11 12.8 8.5 75 1020.5 6.9 N 9.2 0.0 0.0
09:12 12.9 8.6 75 1020.5 8.3 N 9.2 0.0 0.0
09:13 12.9 8.6 75 1020.5 5.4 NE 9.2 0.0 0.0
09:14 13.0 8.7 75 1020.1 7.6 NNE 9.2 0.0 0.0
09:15 13.0 8.5 74 1020.4 6.0 SW 9.2 0.0 0.0
09:16 13.0 8.5 74 1020.4 4.5 NE 9.2 0.0 0.0
09:17 13.1 8.6 74 1020.4 5.4 NE 9.2 0.0 0.0
09:18 13.2 8.7 74 1020.4 4.5 N 9.2 0.0 0.0
09:19 13.3 8.8 74 1020.4 4.5 N 9.2 0.0 0.0
09:20 13.3 8.6 73 1020.4 5.4 NW 9.2 0.0 0.0
09:21 13.3 8.6 73 1020.5 5.4 E 9.2 0.0 0.0
09:22 13.4 8.7 73 1020.5 6.0 NE 9.2 0.0 0.0
09:24 13.5 8.8 73 1020.4 5.4 WNW 6.0 0.0 0.0
09:25 13.5 8.8 73 1020.4 5.4 WNW 6.0 0.0 0.0
09:26 13.6 8.9 73 1020.3 8.3 WNW 8.3 0.0 0.0
09:27 13.6 8.7 72 1020.4 6.9 NE 8.3 0.0 0.0
09:28 13.7 8.7 72 1020.3 3.1 ENE 8.3 0.0 0.0
09:29 13.7 8.7 72 1020.3 6.9 W 8.3 0.0 0.0
09:30 13.8 8.8 72 1020.5 7.6 NE 8.3 0.0 0.0
09:31 13.8 8.8 72 1020.3 3.1 W 8.3 0.0 0.0
09:32 13.9 8.9 72 1020.4 5.4 WNW 8.3 0.0 0.0
09:33 13.9 8.7 71 1020.4 3.1 NNE 8.3 0.0 0.0
09:34 13.9 8.7 71 1020.4 4.5 NW 8.3 0.0 0.0
09:35 14.0 8.8 71 1020.4 3.1 W 8.3 0.0 0.0
09:37 14.0 8.8 71 1020.5 9.2 N 9.2 0.0 0.0
09:38 14.1 8.7 70 1020.5 2.2 NW 9.2 0.0 0.0
09:39 14.1 8.7 70 1020.6 3.1 NW 9.2 0.0 0.0
09:41 14.2 8.8 70 1020.5 3.8 NW 9.2 0.0 0.0
09:42 14.3 8.9 70 1020.6 5.4 SE 9.2 0.0 0.0
09:43 14.3 8.7 69 1020.5 2.2 NW 9.2 0.0 0.0
09:44 14.4 8.8 69 1020.5 6.9 ENE 9.2 0.0 0.0
09:45 14.4 8.8 69 1020.5 9.2 NW 9.2 0.0 0.0
09:46 14.5 8.7 68 1020.4 9.2 NW 9.2 0.0 0.0
09:47 14.5 8.7 68 1020.5 6.9 NE 9.2 0.0 0.0
09:48 14.6 8.8 68 1020.3 9.2 NE 9.2 0.0 0.0
09:49 14.6 8.5 67 1020.5 8.3 N 9.2 0.0 0.0
09:50 14.7 8.6 67 1020.5 8.3 N 9.2 0.0 0.0
09:51 14.7 8.6 67 1020.5 8.3 N 9.2 0.0 0.0
09:52 14.7 8.6 67 1020.5 7.6 N 9.2 0.0 0.0
09:53 14.7 8.4 66 1020.4 8.3 NW 9.2 0.0 0.0
09:54 14.8 8.5 66 1020.5 8.3 N 9.2 0.0 0.0
09:55 14.8 8.5 66 1020.6 6.0 SW 9.2 0.0 0.0
09:56 14.9 8.4 65 1020.5 6.9 NE 9.2 0.0 0.0
09:58 14.9 8.4 65 1020.5 9.2 N 9.2 0.0 0.0
09:59 15.0 8.5 65 1020.6 5.4 NNE 9.2 0.0 0.0
10:00 15.0 8.5 65 1020.5 4.5 N 9.2 0.0 0.0
10:01 15.0 8.5 65 1020.6 4.5 N 9.2 0.0 0.0
10:02 15.1 8.6 65 1020.5 3.8 SE 9.2 0.0 0.0
10:03 15.1 8.3 64 1020.6 6.0 SW 9.2 0.0 0.0
10:04 15.1 8.6 65 1020.5 4.5 N 9.2 0.0 0.0
10:05 15.2 8.4 64 1020.7 4.5 W 9.2 0.0 0.0
10:06 15.2 8.4 64 1020.6 7.6 N 9.2 0.0 0.0
10:07 15.2 8.4 64 1020.6 7.6 N 9.2 0.0 0.0
10:08 15.3 8.5 64 1020.7 6.0 N 9.2 0.0 0.0
10:09 15.3 8.5 64 1020.5 7.6 W 9.2 0.0 0.0
10:10 15.3 8.3 63 1020.6 7.6 N 9.2 0.0 0.0
10:11 15.4 8.4 63 1020.6 6.9 NW 9.2 0.0 0.0
10:12 15.4 8.4 63 1020.8 3.8 SW 9.2 0.0 0.0
10:13 15.5 8.5 63 1020.8 7.6 NE 9.2 0.0 0.0
10:14 15.5 8.5 63 1020.7 5.4 E 9.2 0.0 0.0
10:15 15.6 8.6 63 1020.5 4.5 NE 9.2 0.0 0.0
10:16 15.6 8.6 63 1020.6 4.5 N 7.6 0.0 0.0
10:17 15.6 8.6 63 1020.8 3.8 N 7.6 0.0 0.0
10:18 15.7 8.7 63 1020.7 4.5 N 7.6 0.0 0.0
10:19 15.7 8.7 63 1020.7 3.1 WNW 7.6 0.0 0.0
10:20 15.7 8.4 62 1020.6 8.3 N 8.3 0.0 0.0
10:21 15.8 8.5 62 1020.7 3.8 NE 8.3 0.0 0.0
10:22 15.8 8.3 61 1020.8 6.9 NE 8.3 0.0 0.0
10:23 15.8 8.3 61 1020.6 5.4 NE 8.3 0.0 0.0
10:24 15.8 8.3 61 1020.7 7.6 NW 8.3 0.0 0.0
10:25 15.8 8.3 61 1020.6 9.2 NE 9.2 0.0 0.0
10:26 15.8 8.3 61 1020.7 7.6 N 9.2 0.0 0.0
10:27 15.9 8.4 61 1020.7 6.9 E 9.2 0.0 0.0
10:28 15.9 8.4 61 1020.6 5.4 N 9.2 0.0 0.0
10:30 15.9 8.2 60 1020.5 6.0 N 9.2 0.0 0.0
10:31 15.9 8.2 60 1020.6 5.4 NW 9.2 0.0 0.0
10:32 15.9 8.2 60 1020.6 6.9 N 9.2 0.0 0.0
10:33 15.9 8.2 60 1020.6 8.3 NW 9.2 0.0 0.0
10:34 16.0 8.2 60 1020.7 6.0 W 9.2 0.0 0.0
10:35 16.0 8.0 59 1020.6 4.5 NW 8.3 0.0 0.0
10:36 16.0 8.0 59 1020.8 4.5 NW 8.3 0.0 0.0
10:37 16.0 8.0 59 1020.7 6.9 NW 8.3 0.0 0.0
10:38 16.0 8.0 59 1020.7 6.9 NW 8.3 0.0 0.0
10:39 16.0 8.0 59 1020.7 6.9 NW 8.3 0.0 0.0
10:40 16.1 8.1 59 1021.0 7.6 SW 8.3 0.0 0.0
10:41 16.1 8.1 59 1020.8 5.4 NW 8.3 0.0 0.0
10:42 16.1 8.1 59 1020.8 4.5 WNW 8.3 0.0 0.0
10:43 16.2 8.2 59 1020.9 5.4 W 8.3 0.0 0.0
10:44 16.2 8.2 59 1020.8 6.9 N 8.3 0.0 0.0
10:46 16.3 8.3 59 1020.8 9.2 N 9.2 0.0 0.0
10:47 16.3 8.0 58 1020.8 6.0 N 9.2 0.0 0.0
10:48 16.4 8.1 58 1020.6 6.9 W 9.2 0.0 0.0
10:49 16.4 8.1 58 1020.6 6.9 E 9.2 0.0 0.0
10:50 16.4 8.1 58 1020.8 6.9 NW 9.2 0.0 0.0
10:51 16.5 8.2 58 1020.7 4.5 NE 9.2 0.0 0.0
10:52 16.5 8.2 58 1020.6 6.9 N 9.2 0.0 0.0
10:53 16.5 8.0 57 1020.7 4.5 W 9.2 0.0 0.0
10:54 16.5 8.0 57 1020.7 4.5 W 9.2 0.0 0.0
10:55 16.6 8.3 58 1020.8 4.5 N 9.2 0.0 0.0
10:56 16.6 8.1 57 1020.6 4.5 N 9.2 0.0 0.0
10:57 16.7 8.1 57 1020.8 8.3 N 9.2 0.0 0.0
10:58 16.7 8.1 57 1020.6 6.9 N 9.2 0.0 0.0
10:59 16.7 7.9 56 1020.7 4.5 N 9.2 0.0 0.0
11:00 16.8 8.0 56 1020.7 8.3 SW 9.2 0.0 0.0
11:01 16.8 8.0 56 1020.6 8.3 SW 9.2 0.0 0.0
11:03 16.9 8.1 56 1020.7 8.3 NW 9.2 0.0 0.0
11:04 16.9 7.8 55 1020.7 6.9 NW 9.2 0.0 0.0
11:05 17.0 7.9 55 1020.7 8.3 N 9.2 0.0 0.0
11:06 17.0 7.6 54 1020.8 10.7 W 10.7 0.0 0.0
11:07 17.0 7.6 54 1020.7 3.8 SW 10.7 0.0 0.0
11:08 17.0 7.6 54 1020.7 3.8 WNW 10.7 0.0 0.0
11:09 17.0 6.8 51 1020.7 7.6 N 10.7 0.0 0.0
11:10 17.1 6.6 50 1020.9 6.0 NW 10.7 0.0 0.0
11:11 17.1 6.9 51 1020.8 9.8 NE 10.7 0.0 0.0
11:12 17.2 7.0 51 1020.7 9.2 NE 10.7 0.0 0.0
11:13 17.3 6.8 50 1020.7 7.6 NE 10.7 0.0 0.0
11:14 17.3 6.8 50 1020.8 7.6 NE 10.7 0.0 0.0
11:15 17.4 7.2 51 1020.8 6.0 N 10.7 0.0 0.0
11:16 17.4 6.9 50 1020.8 9.2 N 10.7 0.0 0.0
11:17 17.4 6.6 49 1020.9 6.9 N 9.8 0.0 0.0
11:18 17.4 6.3 48 1020.7 7.6 NW 9.8 0.0 0.0
11:19 17.4 6.6 49 1020.8 6.0 W 9.8 0.0 0.0
11:21 17.4 6.9 50 1020.9 4.5 NW 9.8 0.0 0.0
11:22 17.5 7.0 50 1021.0 6.9 NW 9.2 0.0 0.0
11:23 17.5 6.7 49 1021.0 7.6 NW 9.2 0.0 0.0
11:24 17.5 6.1 47 1020.9 6.9 NW 9.2 0.0 0.0
11:25 17.4 6.3 48 1020.9 11.4 W 11.4 0.0 0.0
11:26 17.5 6.4 48 1020.9 5.4 NW 11.4 0.0 0.0
11:27 17.5 6.4 48 1020.9 7.6 NE 11.4 0.0 0.0
11:28 17.5 6.7 49 1021.0 7.6 WNW 11.4 0.0 0.0
11:29 17.6 6.5 48 1020.9 6.9 W 11.4 0.0 0.0
11:30 17.6 6.5 48 1020.9 8.3 SW 11.4 0.0 0.0
11:31 17.6 6.2 47 1020.8 6.0 NE 11.4 0.0 0.0
11:32 17.6 6.2 47 1020.8 6.0 NE 11.4 0.0 0.0
11:33 17.7 6.6 48 1020.9 8.3 N 11.4 0.0 0.0
11:34 17.7 6.6 48 1020.9 7.6 NW 11.4 0.0 0.0
11:35 17.7 6.3 47 1021.0 6.0 NW 11.4 0.0 0.0
11:36 17.8 6.0 46 1020.9 7.6 NW 11.4 0.0 0.0
11:37 17.8 6.0 46 1021.0 10.7 N 10.7 0.0 0.0
11:38 17.8 6.0 46 1020.9 9.2 N 10.7 0.0 0.0
11:39 17.7 5.9 46 1021.0 8.3 NW 10.7 0.0 0.0
11:40 17.8 6.3 47 1021.0 9.2 NW 10.7 0.0 0.0
11:41 17.8 6.0 46 1021.0 9.2 NE 10.7 0.0 0.0
11:42 17.9 5.8 45 1021.0 6.9 NE 10.7 0.0 0.0
11:43 18.0 5.9 45 1020.9 8.3 NE 10.7 0.0 0.0
11:44 18.1 5.7 44 1021.0 9.8 NE 10.7 0.0 0.0
11:45 18.1 6.0 45 1020.9 6.0 NW 10.7 0.0 0.0
11:46 18.2 6.1 45 1021.0 7.6 N 10.7 0.0 0.0
11:47 18.3 6.5 46 1020.9 6.0 NW 9.8 0.0 0.0
11:48 18.3 6.2 45 1021.0 7.6 N 9.8 0.0 0.0
11:49 18.4 5.6 43 1021.0 6.0 NE 9.8 0.0 0.0
11:50 18.4 5.6 43 1021.0 7.6 NE 9.8 0.0 0.0
11:51 18.4 5.6 43 1021.0 9.2 WNW 9.8 0.0 0.0
11:52 18.2 4.7 41 1021.1 9.2 N 9.8 0.0 0.0
11:53 18.2 4.7 41 1021.0 3.8 N 9.8 0.0 0.0
11:54 18.2 5.8 44 1021.0 3.8 NW 9.8 0.0 0.0
11:55 18.3 5.8 44 1021.0 8.3 N 9.2 0.0 0.0
11:56 18.3 5.8 44 1021.1 7.6 ENE 9.2 0.0 0.0
11:58 18.3 5.2 42 1021.1 6.0 N 9.2 0.0 0.0
11:59 18.3 5.5 43 1021.1 6.9 N 9.2 0.0 0.0
12:00 18.4 5.3 42 1021.1 8.3 NW 9.2 0.0 0.0
12:01 18.4 5.3 42 1021.1 8.3 NW 9.2 0.0 0.0
12:02 18.3 5.5 43 1021.0 6.0 N 9.2 0.0 0.0
12:03 18.3 5.5 43 1021.0 6.0 NE 8.3 0.0 0.0
12:04 18.4 5.9 44 1021.1 6.9 SW 8.3 0.0 0.0
12:05 18.4 5.6 43 1021.0 5.4 N 8.3 0.0 0.0
12:06 18.4 5.9 44 1021.0 6.0 N 8.3 0.0 0.0
12:07 18.4 5.9 44 1021.0 6.0 N 8.3 0.0 0.0
12:08 18.5 6.0 44 1021.0 8.3 NE 8.3 0.0 0.0
12:09 18.5 6.4 45 1020.9 12.1 NE 12.1 0.0 0.0
12:10 18.6 6.4 45 1021.0 10.7 N 12.1 0.0 0.0
12:11 18.6 5.8 43 1020.9 10.7 NW 12.1 0.0 0.0
12:12 18.5 6.0 44 1021.0 8.3 NW 12.1 0.0 0.0
12:13 18.5 6.0 44 1021.0 6.9 NW 12.1 0.0 0.0
12:15 18.5 6.4 45 1021.0 5.4 N 12.1 0.0 0.0
12:16 18.6 5.8 43 1021.0 4.5 NW 12.1 0.0 0.0
12:17 18.6 5.8 43 1021.0 6.0 NW 12.1 0.0 0.0
12:18 18.6 6.8 46 1021.0 6.0 W 12.1 0.0 0.0
12:19 18.6 6.1 44 1021.0 10.7 NW 10.7 0.0 0.0
12:20 18.6 6.4 45 1021.0 12.1 N 12.1 0.0 0.0
12:21 18.5 6.0 44 1021.0 9.2 WNW 12.1 0.0 0.0
12:22 18.5 6.0 44 1021.0 9.8 NW 12.1 0.0 0.0
12:23 18.5 6.4 45 1021.0 8.3 NW 12.1 0.0 0.0
12:24 18.4 5.6 43 1020.8 8.3 WSW 12.1 0.0 0.0
12:25 18.4 5.9 44 1021.1 8.3 N 12.1 0.0 0.0
12:26 18.3 6.2 45 1020.8 7.6 SW 12.1 0.0 0.0
12:27 18.3 6.5 46 1020.9 5.4 N 12.1 0.0 0.0
12:28 18.4 6.3 45 1020.9 3.1 N 12.1 0.0 0.0
12:29 18.4 5.6 43 1020.9 9.8 NW 12.1 0.0 0.0
12:30 18.4 6.3 45 1020.9 6.9 NW 12.1 0.0 0.0
12:31 18.4 6.3 45 1020.8 7.6 NW 9.8 0.0 0.0
12:32 18.3 5.5 43 1020.8 10.7 NW 10.7 0.0 0.0
12:33 18.3 6.2 45 1020.8 5.4 NW 10.7 0.0 0.0
12:34 18.2 5.8 44 1020.8 7.6 NW 10.7 0.0 0.0
12:35 18.2 6.1 45 1020.8 6.0 ENE 10.7 0.0 0.0
12:36 18.1 6.0 45 1020.7 6.0 E 10.7 0.0 0.0
12:37 18.1 6.0 45 1020.9 6.9 NW 10.7 0.0 0.0
12:38 18.1 6.6 47 1020.9 9.2 NW 10.7 0.0 0.0
12:39 18.2 6.7 47 1020.9 6.0 N 10.7 0.0 0.0
12:40 18.3 6.8 47 1020.8 5.4 SE 10.7 0.0 0.0
12:41 18.3 6.5 46 1020.9 6.9 SE 10.7 0.0 0.0
12:42 18.3 6.2 45 1020.8 13.6 W 13.6 0.0 0.0
12:43 18.4 6.9 47 1021.0 9.2 NE 13.6 0.0 0.0
12:44 18.4 6.3 45 1020.8 5.4 NW 13.6 0.0 0.0
12:45 18.5 6.4 45 1021.0 4.5 W 13.6 0.0 0.0
12:46 18.5 6.4 45 1020.9 6.9 NW 13.6 0.0 0.0
12:47 18.5 6.0 44 1020.9 8.3 NW 13.6 0.0 0.0
12:48 18.5 5.7 43 1021.0 7.6 NW 13.6 0.0 0.0
12:49 18.5 6.0 44 1021.0 9.8 NW 13.6 0.0 0.0
12:50 18.4 6.9 47 1021.0 6.0 NW 13.6 0.0 0.0
12:51 18.5 6.4 45 1021.0 9.8 NW 13.6 0.0 0.0
12:52 18.5 6.4 45 1021.0 11.4 NW 11.4 0.0 0.0
12:53 18.5 6.7 46 1021.0 10.7 N 11.4 0.0 0.0
12:54 18.5 6.7 46 1021.1 6.9 NE 11.4 0.0 0.0
12:55 18.5 6.4 45 1021.0 6.9 N 11.4 0.0 0.0
12:56 18.5 6.0 44 1021.0 7.6 NW 11.4 0.0 0.0
12:57 18.5 6.7 46 1021.0 3.8 W 11.4 0.0 0.0
12:58 18.6 6.4 45 1020.8 6.0 NW 11.4 0.0 0.0
12:59 18.6 6.1 44 1020.9 6.0 W 11.4 0.0 0.0
13:00 18.6 6.4 45 1021.0 12.1 NW 12.1 0.0 0.0
13:01 18.6 6.4 45 1020.8 12.1 NW 12.1 0.0 0.0
13:02 18.6 6.4 45 1020.9 7.6 SW 12.1 0.0 0.0
13:03 18.6 6.4 45 1021.0 9.8 N 12.1 0.0 0.0
13:04 18.7 7.2 47 1020.9 4.5 N 12.1 0.0 0.0
13:05 18.7 6.9 46 1021.0 9.2 NW 12.1 0.0 0.0
13:06 18.8 6.9 46 1021.0 6.9 NW 12.1 0.0 0.0
13:07 18.8 7.3 47 1021.0 5.4 NW 12.1 0.0 0.0
13:08 18.8 6.9 46 1021.0 10.7 E 12.1 0.0 0.0
13:09 18.8 6.3 44 1021.0 7.6 NW 12.1 0.0 0.0
13:10 18.8 6.9 46 1020.9 6.0 NW 12.1 0.0 0.0
13:11 18.8 6.6 45 1020.9 6.9 NW 10.7 0.0 0.0
13:12 18.8 6.3 44 1020.9 9.2 NW 10.7 0.0 0.0
13:13 18.8 6.3 44 1020.9 7.6 N 10.7 0.0 0.0
13:14 18.9 7.0 46 1020.9 7.6 NW 10.7 0.0 0.0
13:15 18.9 7.4 47 1020.9 8.3 W 10.7 0.0 0.0
13:16 18.9 7.0 46 1021.0 3.8 NW 10.7 0.0 0.0
13:17 19.0 7.1 46 1020.9 8.3 W 10.7 0.0 0.0
13:18 19.0 7.4 47 1020.9 6.9 NE 10.7 0.0 0.0
13:19 19.0 7.1 46 1021.0 9.2 N 9.2 0.0 0.0
13:20 18.9 6.7 45 1021.0 8.3 NW 13.6 0.0 0.0
13:21 18.9 6.7 45 1021.2 13.0 N 13.6 0.0 0.0
13:22 18.9 6.4 44 1021.1 7.6 NW 13.6 0.0 0.0
13:23 18.8 6.3 44 1020.9 6.0 W 13.6 0.0 0.0
13:24 18.8 6.6 45 1021.1 9.2 NW 13.6 0.0 0.0
13:25 18.8 6.6 45 1021.0 9.2 WSW 13.6 0.0 0.0
13:26 18.7 5.2 41 1020.9 9.8 NW 13.6 0.0 0.0
13:27 18.6 5.4 42 1021.1 10.7 W 13.6 0.0 0.0
13:28 18.6 6.1 44 1021.0 6.0 NW 13.6 0.0 0.0
13:29 18.6 5.8 43 1021.0 6.9 NW 13.6 0.0 0.0
13:30 18.6 6.1 44 1021.0 11.4 SE 13.0 0.0 0.0
13:31 18.6 6.1 44 1021.1 9.2 NW 11.4 0.0 0.0
13:32 18.7 6.2 44 1020.9 6.0 NE 11.4 0.0 0.0
13:33 18.7 5.9 43 1021.0 8.3 NW 11.4 0.0 0.0
13:34 18.6 5.1 41 1021.0 10.7 W 11.4 0.0 0.0
13:35 18.6 6.1 44 1021.0 6.9 NW 11.4 0.0 0.0
13:36 18.6 6.4 45 1021.0 9.2 N 11.4 0.0 0.0
13:37 18.7 6.5 45 1021.1 12.1 N 12.1 0.0 0.0
13:38 18.7 6.2 44 1021.1 9.2 N 12.1 0.0 0.0
13:39 18.7 5.5 42 1021.0 10.7 WNW 12.1 0.0 0.0
13:40 18.8 6.6 45 1021.1 6.9 SW 12.1 0.0 0.0
13:41 18.8 6.3 44 1021.1 8.3 N 12.1 0.0 0.0
13:42 18.9 6.4 44 1021.2 6.9 W 12.1 0.0 0.0
13:43 18.9 6.4 44 1021.1 3.8 N 12.1 0.0 0.0
13:44 19.1 6.6 44 1021.1 5.4 N 12.1 0.0 0.0
13:45 19.2 6.7 44 1021.2 6.9 N 12.1 0.0 0.0
13:46 19.3 6.1 42 1021.2 8.3 NW 12.1 0.0 0.0
13:47 19.3 6.1 42 1021.3 8.3 NW 10.7 0.0 0.0
13:48 19.3 5.7 41 1021.2 9.8 E 10.7 0.0 0.0
13:49 19.2 6.3 43 1021.1 6.0 NW 9.8 0.0 0.0
13:50 19.4 6.8 44 1021.2 6.0 E 9.8 0.0 0.0
13:51 19.4 6.5 43 1021.0 4.5 WNW 9.8 0.0 0.0
13:52 19.5 6.9 44 1021.3 7.6 NW 9.8 0.0 0.0
13:53 19.5 7.3 45 1021.1 6.9 NE 9.8 0.0 0.0
13:54 19.5 6.9 44 1021.1 6.9 NE 9.8 0.0 0.0
13:55 19.5 6.9 44 1021.1 6.9 NE 9.8 0.0 0.0
13:56 19.5 6.3 42 1021.1 6.9 NW 9.8 0.0 0.0
13:57 19.4 6.2 42 1021.3 9.8 NW 9.8 0.0 0.0
13:58 19.4 6.2 42 1021.3 6.9 NW 9.8 0.0 0.0
13:59 19.4 6.5 43 1021.4 6.9 N 9.8 0.0 0.0
14:00 19.2 5.6 41 1021.2 10.7 NW 10.7 0.0 0.0
14:01 19.2 5.6 41 1021.1 10.7 NW 10.7 0.0 0.0
14:02 19.2 6.0 42 1021.2 7.6 NW 10.7 0.0 0.0
14:03 19.2 5.6 41 1021.2 11.4 N 11.4 0.0 0.0
14:05 19.0 6.1 43 1021.2 9.2 W 11.4 0.0 0.0
14:06 19.0 6.1 43 1021.2 6.0 NE 11.4 0.0 0.0
14:07 19.0 6.1 43 1021.2 9.8 E 11.4 0.0 0.0
14:08 19.0 6.8 45 1021.1 12.1 N 12.1 0.0 0.0
14:09 19.0 6.5 44 1021.2 3.8 N 12.1 0.0 0.0
14:10 19.0 6.1 43 1021.2 6.0 N 12.1 0.0 0.0
14:11 19.1 6.6 44 1021.1 6.9 SW 12.1 0.0 0.0
14:12 19.1 5.9 42 1021.2 8.3 NW 12.1 0.0 0.0
14:13 19.0 5.1 40 1021.3 13.6 N 13.6 0.0 0.0
14:14 19.0 5.8 42 1021.3 9.8 W 13.6 0.0 0.0
14:15 19.0 5.5 41 1021.2 9.2 SW 13.6 0.0 0.0
14:16 18.9 5.4 41 1021.2 6.0 N 13.6 0.0 0.0
14:17 18.9 6.4 44 1021.2 6.9 NW 13.6 0.0 0.0
14:18 19.0 6.8 45 1021.1 9.8 N 13.6 0.0 0.0
14:19 19.0 6.5 44 1021.2 9.8 N 13.6 0.0 0.0
14:20 18.9 6.1 43 1021.1 6.0 N 13.6 0.0 0.0
14:21 18.9 6.7 45 1021.2 9.2 SW 13.6 0.0 0.0
14:22 18.9 6.4 44 1021.3 11.4 NW 13.6 0.0 0.0
14:23 18.8 6.0 43 1021.1 8.3 NW 11.4 0.0 0.0
14:24 18.8 6.3 44 1021.2 7.6 W 11.4 0.0 0.0
14:25 18.8 6.6 45 1021.2 7.6 NW 11.4 0.0 0.0
14:26 18.9 6.7 45 1021.3 7.6 NE 11.4 0.0 0.0
14:27 18.9 6.7 45 1021.3 7.6 W 11.4 0.0 0.0
14:28 18.9 6.7 45 1021.2 9.2 NW 11.4 0.0 0.0
14:29 18.9 6.4 44 1021.1 9.8 WNW 11.4 0.0 0.0
14:30 18.9 6.1 43 1021.2 6.9 NW 11.4 0.0 0.0
14:31 18.9 6.1 43 1021.2 6.9 NW 11.4 0.0 0.0
14:32 18.9 6.4 44 1021.2 5.4 W 11.4 0.0 0.0
14:33 19.0 7.1 46 1021.2 6.9 NW 9.8 0.0 0.0
14:34 19.1 7.5 47 1021.2 8.3 NW 9.8 0.0 0.0
14:35 19.2 6.7 44 1021.1 9.2 NW 9.8 0.0 0.0
14:36 19.1 6.2 43 1021.2 10.7 SE 10.7 0.0 0.0
14:37 19.1 5.9 42 1021.2 8.3 W 10.7 0.0 0.0
14:38 19.1 6.6 44 1021.1 6.9 E 10.7 0.0 0.0
14:39 18.8 6.3 44 1021.1 11.4 NW 11.4 0.0 0.0
14:40 19.0 6.8 45 1021.2 8.3 NW 11.4 0.0 0.0
14:41 19.2 7.0 45 1021.3 5.4 N 11.4 0.0 0.0
14:42 19.2 6.3 43 1021.2 12.1 NW 12.1 0.0 0.0
14:43 19.2 6.3 43 1021.2 9.8 NW 12.1 0.0 0.0
14:44 19.3 6.4 43 1021.2 10.7 NW 12.1 0.0 0.0
14:45 19.2 6.7 44 1021.3 10.7 NW 12.1 0.0 0.0
14:46 19.2 6.7 44 1021.3 7.6 NW 12.1 0.0 0.0
14:47 19.2 6.3 43 1021.3 9.2 W 12.1 0.0 0.0
14:48 19.2 7.0 45 1021.3 8.3 N 12.1 0.0 0.0
14:49 19.2 7.0 45 1021.3 6.9 NW 12.1 0.0 0.0
14:50 19.2 7.0 45 1021.3 6.9 NW 12.1 0.0 0.0
14:51 19.2 6.0 42 1021.3 9.8 NW 12.1 0.0 0.0
14:52 19.2 6.0 42 1021.3 6.9 SW 12.1 0.0 0.0
14:53 19.2 6.7 44 1021.4 9.8 SW 11.4 0.0 0.0
14:54 19.2 6.3 43 1021.3 9.2 E 11.4 0.0 0.0
14:55 19.2 6.0 42 1021.2 8.3 SW 11.4 0.0 0.0
14:56 19.2 6.0 42 1021.3 9.2 NE 11.4 0.0 0.0
14:57 19.1 5.9 42 1021.2 10.7 N 11.4 0.0 0.0
14:58 19.1 5.9 42 1021.4 11.4 NE 11.4 0.0 0.0
15:00 19.0 6.1 43 1021.3 8.3 WSW 11.4 0.0 0.0
15:01 19.0 6.5 44 1021.3 10.7 WNW 11.4 0.0 0.0
15:02 19.0 6.5 44 1021.3 10.7 SW 11.4 0.0 0.0
15:03 19.0 6.8 45 1021.3 6.0 N 11.4 0.0 0.0
15:04 19.0 6.1 43 1021.3 9.2 N 11.4 0.0 0.0
15:05 19.0 6.1 43 1021.5 11.4 N 11.4 0.0 0.0
15:06 19.0 5.8 42 1021.2 9.8 NNW 11.4 0.0 0.0
15:07 19.0 5.8 42 1021.4 6.0 NW 11.4 0.0 0.0
15:08 19.0 6.1 43 1021.5 4.5 W 11.4 0.0 0.0
15:09 19.0 6.5 44 1021.5 7.6 NW 11.4 0.0 0.0
15:10 19.0 5.8 42 1021.3 9.2 W 11.4 0.0 0.0
15:11 19.0 6.1 43 1021.4 8.3 NW 11.4 0.0 0.0
15:12 19.1 6.6 44 1021.3 6.0 NW 11.4 0.0 0.0
15:13 19.1 6.9 45 1021.3 6.0 N 11.4 0.0 0.0
15:14 19.2 6.7 44 1021.3 6.9 N 11.4 0.0 0.0
15:15 19.2 6.3 43 1021.3 3.8 W 11.4 0.0 0.0
15:16 19.3 6.4 43 1021.5 9.2 N 9.8 0.0 0.0
15:17 19.2 6.3 43 1021.3 9.2 NW 9.2 0.0 0.0
15:18 19.3 7.1 45 1021.2 6.9 SW 9.2 0.0 0.0
15:19 19.3 7.4 46 1021.4 9.8 NW 9.8 0.0 0.0
15:20 19.3 6.1 42 1021.3 8.3 N 9.8 0.0 0.0
15:21 19.2 6.0 42 1021.4 13.0 NW 13.0 0.0 0.0
15:23 19.2 7.3 46 1021.3 5.4 NW 13.0 0.0 0.0
15:24 19.2 6.3 43 1021.4 6.0 W 13.0 0.0 0.0
15:25 19.2 7.0 45 1021.3 6.0 N 13.0 0.0 0.0
15:26 19.2 6.7 44 1021.4 6.9 NE 13.0 0.0 0.0
15:27 19.3 7.1 45 1021.4 6.0 NE 13.0 0.0 0.0
15:28 19.4 6.5 43 1021.4 7.6 NE 13.0 0.0 0.0
15:29 19.5 6.9 44 1021.3 6.0 NNE 13.0 0.0 0.0
15:30 19.6 6.0 41 1021.5 8.3 SE 13.0 0.0 0.0
15:31 19.6 6.0 41 1021.4 7.6 SE 12.1 0.0 0.0
15:32 19.6 6.0 41 1021.3 6.9 NW 12.1 0.0 0.0
15:33 19.6 5.6 40 1021.5 8.3 N 12.1 0.0 0.0
15:34 19.6 5.6 40 1021.4 6.9 W 12.1 0.0 0.0
15:35 19.6 6.0 41 1021.5 5.4 ENE 12.1 0.0 0.0
15:36 19.5 5.6 40 1021.4 8.3 NW 10.7 0.0 0.0
15:37 19.5 6.3 42 1021.5 9.8 N 10.7 0.0 0.0
15:38 19.4 5.5 40 1021.5 6.9 N 10.7 0.0 0.0
15:39 19.4 5.5 40 1021.5 6.9 N 10.7 0.0 0.0
15:40 19.4 6.2 42 1021.5 5.4 N 9.8 0.0 0.0
15:42 19.6 6.3 42 1021.5 5.4 N 11.4 0.0 0.0
15:43 19.7 6.1 41 1021.3 6.9 N 11.4 0.0 0.0
15:44 19.7 6.1 41 1021.4 7.6 NW 11.4 0.0 0.0
15:45 19.7 5.7 40 1021.4 7.6 N 11.4 0.0 0.0
15:46 19.6 6.0 41 1021.4 8.3 NW 11.4 0.0 0.0
15:47 19.6 6.7 43 1021.4 4.5 WNW 11.4 0.0 0.0
15:48 19.7 6.4 42 1021.4 6.9 NE 11.4 0.0 0.0
15:49 19.8 6.2 41 1021.5 6.9 N 11.4 0.0 0.0
15:50 19.8 6.2 41 1021.5 6.9 N 11.4 0.0 0.0
15:51 19.7 5.7 40 1021.3 8.3 N 11.4 0.0 0.0
15:52 19.7 5.4 39 1021.5 10.7 WNW 10.7 0.0 0.0
15:53 19.6 5.6 40 1021.3 8.3 SW 10.7 0.0 0.0
15:54 19.6 6.3 42 1021.3 9.2 NW 10.7 0.0 0.0
15:55 19.6 6.0 41 1021.4 8.3 N 10.7 0.0 0.0
15:56 19.6 6.3 42 1021.5 7.6 N 11.4 0.0 0.0
15:57 19.6 6.0 41 1021.4 5.4 WNW 11.4 0.0 0.0
15:58 19.6 5.6 40 1021.6 7.6 N 11.4 0.0 0.0
16:00 19.6 5.6 40 1021.4 6.0 N 11.4 0.0 0.0
16:01 19.8 6.2 41 1021.3 7.6 N 11.4 0.0 0.0
16:02 19.9 5.9 40 1021.4 6.0 NW 11.4 0.0 0.0
16:03 19.9 5.9 40 1021.5 6.9 N 11.4 0.0 0.0
16:04 19.9 6.3 41 1021.5 4.5 NE 11.4 0.0 0.0
16:05 20.0 6.0 40 1021.3 7.6 W 11.4 0.0 0.0
16:06 20.1 6.8 42 1021.3 4.5 WNW 7.6 0.0 0.0
16:07 20.1 6.1 40 1021.3 9.2 NE 9.2 0.0 0.0
16:08 20.2 5.8 39 1021.4 9.8 W 9.8 0.0 0.0
16:09 20.1 5.7 39 1021.4 8.3 SE 9.8 0.0 0.0
16:10 20.0 6.0 40 1021.4 10.7 WNW 10.7 0.0 0.0
16:11 19.9 5.2 38 1021.4 8.3 N 10.7 0.0 0.0
16:12 19.9 5.2 38 1021.2 9.2 NW 10.7 0.0 0.0
16:13 19.7 5.4 39 1021.4 11.4 N 11.4 0.0 0.0
16:14 19.7 5.7 40 1021.3 7.6 N 11.4 0.0 0.0
16:15 19.7 6.4 42 1021.3 6.0 N 11.4 0.0 0.0
16:16 19.7 6.4 42 1021.4 8.3 NW 11.4 0.0 0.0
16:18 19.7 5.7 40 1021.5 7.6 N 11.4 0.0 0.0
16:19 19.7 6.1 41 1021.5 5.4 NE 11.4 0.0 0.0
16:20 19.8 6.5 42 1021.3 5.4 N 11.4 0.0 0.0
16:21 19.9 5.9 40 1021.3 8.3 SSW 12.1 0.0 0.0
16:22 19.9 6.3 41 1021.3 6.0 NE 12.1 0.0 0.0
16:23 20.0 6.0 40 1021.3 6.0 NW 12.1 0.0 0.0
16:24 20.0 6.4 41 1021.4 5.4 N 12.1 0.0 0.0
16:25 19.9 5.2 38 1021.5 8.3 NW 12.1 0.0 0.0
16:26 19.9 5.9 40 1021.4 8.3 SW 12.1 0.0 0.0
16:27 20.0 5.6 39 1021.5 7.6 NW 12.1 0.0 0.0
16:28 20.0 6.4 41 1021.5 6.9 NE 12.1 0.0 0.0
16:29 20.0 6.0 40 1021.5 11.4 NW 12.1 0.0 0.0
16:30 19.9 5.2 38 1021.5 9.8 NW 12.1 0.0 0.0
16:31 19.9 5.5 39 1021.5 5.4 NW 12.1 0.0 0.0
16:32 19.8 5.5 39 1021.5 6.9 SW 11.4 0.0 0.0
16:33 19.9 5.9 40 1021.4 6.9 NW 11.4 0.0 0.0
16:34 19.8 5.5 39 1021.4 8.3 N 11.4 0.0 0.0
16:35 19.9 6.3 41 1021.5 4.5 NW 11.4 0.0 0.0
16:37 20.0 5.6 39 1021.5 9.8 N 11.4 0.0 0.0
16:38 20.0 5.3 38 1021.3 10.7 NW 11.4 0.0 0.0
16:39 19.9 4.8 37 1021.5 8.3 SE 10.7 0.0 0.0
16:40 19.9 4.8 37 1021.4 8.3 NE 10.7 0.0 0.0
16:41 19.7 5.0 38 1021.5 9.2 NW 10.7 0.0 0.0
16:42 19.6 5.3 39 1021.4 9.8 NW 10.7 0.0 0.0
16:43 19.5 5.2 39 1021.3 6.9 NW 10.7 0.0 0.0
16:44 19.5 4.8 38 1021.4 11.4 N 11.4 0.0 0.0
16:45 19.4 4.7 38 1021.4 9.8 WNW 11.4 0.0 0.0
16:46 19.4 5.1 39 1021.3 5.4 N 11.4 0.0 0.0
16:47 19.3 5.4 40 1021.2 6.0 NW 11.4 0.0 0.0
16:48 19.3 5.0 39 1021.3 12.1 WNW 12.1 0.0 0.0
16:49 19.3 5.4 40 1021.3 9.8 N 12.1 0.0 0.0
16:50 19.2 5.3 40 1021.3 4.5 NW 12.1 0.0 0.0
16:51 19.2 5.3 40 1021.3 13.0 NW 13.0 0.0 0.0
16:52 19.2 5.3 40 1021.3 9.8 WNW 13.0 0.0 0.0
16:53 19.3 5.7 41 1021.2 7.6 E 13.0 0.0 0.0
16:55 19.3 5.4 40 1021.1 12.1 NW 13.0 0.0 0.0
16:56 19.4 5.8 41 1021.2 7.6 W 13.0 0.0 0.0
16:57 19.4 5.5 40 1021.2 8.3 NW 13.0 0.0 0.0
16:58 19.4 5.5 40 1021.4 6.9 NW 13.0 0.0 0.0
16:59 19.3 5.0 39 1021.3 5.4 W 13.0 0.0 0.0
17:00 19.3 5.0 39 1021.4 5.4 NW 13.0 0.0 0.0
17:01 19.3 4.6 38 1021.2 8.3 NW 12.1 0.0 0.0
17:02 19.2 4.9 39 1021.2 9.8 NW 12.1 0.0 0.0
17:03 19.1 4.8 39 1021.3 7.6 NE 12.1 0.0 0.0
17:04 19.1 5.2 40 1021.3 12.1 N 12.1 0.0 0.0
17:05 19.1 5.2 40 1021.3 7.6 N 12.1 0.0 0.0
17:06 19.1 5.9 42 1021.4 5.4 N 12.1 0.0 0.0
17:07 19.0 5.5 41 1021.4 8.3 N 12.1 0.0 0.0
17:08 19.0 5.5 41 1021.2 5.4 NW 12.1 0.0 0.0
17:09 19.0 5.8 42 1021.3 9.2 NW 12.1 0.0 0.0
17:10 19.0 5.8 42 1021.3 9.2 S 12.1 0.0 0.0
17:11 19.0 5.5 41 1021.3 9.2 NW 12.1 0.0 0.0
17:12 19.0 5.5 41 1021.3 9.2 NW 12.1 0.0 0.0
17:13 18.9 5.4 41 1021.2 8.3 N 12.1 0.0 0.0
17:14 18.9 5.7 42 1021.2 8.3 WNW 12.1 0.0 0.0
17:15 18.9 5.7 42 1021.2 13.6 NE 13.6 0.0 0.0
17:16 18.8 5.6 42 1021.2 8.3 N 13.6 0.0 0.0
17:17 18.8 5.6 42 1021.5 7.6 N 13.6 0.0 0.0
17:19 18.8 5.3 41 1021.3 11.4 NW 13.6 0.0 0.0
17:20 18.8 5.6 42 1021.4 6.0 NW 13.6 0.0 0.0
17:21 18.7 5.5 42 1021.2 9.8 NW 13.6 0.0 0.0
17:22 18.7 5.9 43 1021.3 7.6 N 13.6 0.0 0.0
17:23 18.7 5.5 42 1021.4 9.8 NW 13.6 0.0 0.0
17:24 18.6 5.4 42 1021.3 13.6 S 13.6 0.0 0.0
17:25 18.6 5.8 43 1021.4 4.5 NW 13.6 0.0 0.0
17:26 18.6 5.4 42 1021.5 7.6 NW 13.6 0.0 0.0
17:27 18.7 6.2 44 1021.4 3.1 S 13.6 0.0 0.0
17:28 18.7 5.9 43 1021.3 7.6 SW 13.6 0.0 0.0
17:29 18.8 5.6 42 1021.2 8.3 N 13.6 0.0 0.0
17:30 18.8 6.0 43 1021.3 6.9 N 13.6 0.0 0.0
17:31 18.8 6.3 44 1021.4 4.5 W 13.6 0.0 0.0
17:32 18.8 6.6 45 1021.4 5.4 SW 13.6 0.0 0.0
17:33 18.9 6.4 44 1021.3 9.2 N 13.6 0.0 0.0
17:34 18.8 6.0 43 1021.3 9.2 SW 13.6 0.0 0.0
17:35 18.8 5.3 41 1021.3 10.7 W 10.7 0.0 0.0
17:36 18.8 5.6 42 1021.3 6.9 NW 10.7 0.0 0.0
17:38 18.7 5.9 43 1021.3 6.0 NW 10.7 0.0 0.0
17:39 18.8 5.6 42 1021.3 7.6 E 10.7 0.0 0.0
17:40 18.8 5.6 42 1021.3 9.2 N 10.7 0.0 0.0
17:41 18.7 5.5 42 1021.2 13.0 WNW 13.0 0.0 0.0
17:42 18.7 5.9 43 1021.2 8.3 NW 13.0 0.0 0.0
17:43 18.7 5.9 43 1021.3 7.6 SW 13.0 0.0 0.0
17:44 18.7 5.5 42 1021.2 7.6 N 13.0 0.0 0.0
17:45 18.7 5.5 42 1021.3 6.9 N 13.0 0.0 0.0
17:46 18.7 5.5 42 1021.4 7.6 N 13.0 0.0 0.0
17:47 18.6 5.4 42 1021.4 7.6 NE 13.0 0.0 0.0
17:48 18.7 5.9 43 1021.2 4.5 S 13.0 0.0 0.0
17:49 18.7 6.2 44 1021.3 5.4 N 13.0 0.0 0.0
17:50 18.7 6.2 44 1021.3 5.4 SE 13.0 0.0 0.0
17:51 18.7 6.2 44 1021.2 6.0 SW 13.0 0.0 0.0
17:52 18.7 6.2 44 1021.2 6.0 SW 13.0 0.0 0.0
17:53 18.7 6.2 44 1021.1 8.3 NW 9.2 0.0 0.0
17:54 18.7 6.2 44 1021.3 3.1 N 9.2 0.0 0.0
17:55 18.7 5.9 43 1021.1 9.2 N 9.2 0.0 0.0
17:57 18.6 5.1 41 1021.0 10.7 WNW 10.7 0.0 0.0
17:58 18.6 5.4 42 1021.3 6.0 NW 10.7 0.0 0.0
17:59 18.6 5.4 42 1021.1 9.2 N 10.7 0.0 0.0
18:00 18.6 5.4 42 1021.3 9.2 NW 10.7 0.0 0.0
18:01 18.5 5.7 43 1021.2 7.6 NW 10.7 0.0 0.0
18:02 18.5 5.4 42 1021.3 7.6 NW 10.7 0.0 0.0
18:03 18.5 5.0 41 1021.2 11.4 SW 11.4 0.0 0.0
18:04 18.4 5.3 42 1021.2 4.5 NW 11.4 0.0 0.0
18:05 18.4 5.3 42 1021.2 10.7 NNE 11.4 0.0 0.0
18:06 18.4 5.3 42 1021.2 9.2 WNW 11.4 0.0 0.0
18:07 18.3 5.2 42 1021.2 6.0 ENE 11.4 0.0 0.0
18:08 18.3 5.2 42 1021.2 6.0 ENE 11.4 0.0 0.0
18:09 18.3 5.5 43 1021.3 4.5 N 11.4 0.0 0.0
18:10 18.4 5.9 44 1021.2 5.4 W 11.4 0.0 0.0
18:11 18.4 5.9 44 1021.2 3.8 WNW 11.4 0.0 0.0
18:12 18.5 5.7 43 1021.3 4.5 N 11.4 0.0 0.0
18:13 18.6 5.4 42 1021.2 3.8 E 11.4 0.0 0.0
18:14 18.6 5.4 42 1021.2 7.6 W 10.7 0.0 0.0
18:15 18.6 5.4 42 1021.1 7.6 NW 10.7 0.0 0.0
18:16 18.6 5.4 42 1021.2 6.0 NW 9.8 0.0 0.0
18:17 18.6 5.4 42 1021.0 9.8 NE 9.8 0.0 0.0
18:18 18.6 5.1 41 1021.2 9.8 NW 9.8 0.0 0.0
18:19 18.5 5.0 41 1021.2 9.2 NW 9.8 0.0 0.0
18:21 18.3 4.5 40 1021.3 5.4 W 11.4 0.0 0.0
18:22 18.3 4.8 41 1021.2 8.3 NW 11.4 0.0 0.0
18:23 18.2 5.1 42 1021.2 7.6 N 11.4 0.0 0.0
18:24 18.2 4.7 41 1021.3 9.2 NW 11.4 0.0 0.0
18:25 18.1 5.0 42 1021.1 11.4 NW 11.4 0.0 0.0
18:26 18.1 4.3 40 1021.2 10.7 W 11.4 0.0 0.0
18:27 18.1 4.3 40 1021.2 6.9 N 11.4 0.0 0.0
18:28 18.1 4.6 41 1021.1 6.9 NW 11.4 0.0 0.0
18:29 18.1 5.0 42 1021.1 3.1 N 11.4 0.0 0.0
18:30 18.1 4.6 41 1021.2 8.3 N 11.4 0.0 0.0
18:31 18.1 5.0 42 1021.1 8.3 SW 11.4 0.0 0.0
18:32 18.1 5.0 42 1021.2 9.2 NW 11.4 0.0 0.0
18:33 18.1 5.0 42 1021.2 10.7 W 11.4 0.0 0.0
18:34 18.1 5.0 42 1021.3 4.5 NE 11.4 0.0 0.0
18:35 18.1 5.3 43 1021.2 3.8 SW 11.4 0.0 0.0
18:36 18.1 5.0 42 1021.3 4.5 SE 10.7 0.0 0.0
18:37 18.1 5.0 42 1021.2 9.2 N 10.7 0.0 0.0
18:39 18.1 5.0 42 1021.2 9.2 NW 10.7 0.0 0.0
18:40 18.0 5.2 43 1021.3 5.4 NW 10.7 0.0 0.0
18:41 18.0 5.2 43 1021.2 5.4 N 10.7 0.0 0.0
18:42 18.0 5.2 43 1021.1 4.5 NE 10.7 0.0 0.0
18:43 18.0 5.6 44 1021.2 3.8 E 9.2 0.0 0.0
18:44 18.0 5.6 44 1021.3 8.3 N 9.2 0.0 0.0
18:45 18.0 5.6 44 1021.2 4.5 NW 9.2 0.0 0.0
18:46 18.0 5.6 44 1021.2 4.5 NW 9.2 0.0 0.0
18:47 18.0 5.6 44 1021.2 5.4 NW 9.2 0.0 0.0
18:48 18.0 5.6 44 1021.1 6.0 NE 9.2 0.0 0.0
18:49 18.1 5.7 44 1021.2 6.9 N 9.2 0.0 0.0
18:50 18.1 5.7 44 1021.1 5.4 NW 8.3 0.0 0.0
18:51 18.0 5.2 43 1021.3 4.5 E 8.3 0.0 0.0
18:52 18.0 5.6 44 1021.2 5.4 N 8.3 0.0 0.0
18:53 18.0 5.6 44 1021.2 10.7 W 10.7 0.0 0.0
18:54 17.9 5.5 44 1021.3 7.6 N 10.7 0.0 0.0
18:55 17.9 5.8 45 1021.3 4.5 W 10.7 0.0 0.0
18:56 17.9 5.8 45 1021.2 6.9 NW 10.7 0.0 0.0
18:58 17.8 5.7 45 1021.2 7.6 NE 10.7 0.0 0.0
18:59 17.8 5.7 45 1021.2 5.4 W 10.7 0.0 0.0
19:00 17.8 5.7 45 1021.2 7.6 N 10.7 0.0 0.0
19:01 17.8 5.7 45 1021.2 4.5 W 10.7 0.0 0.0
19:02 17.8 5.7 45 1021.2 7.6 N 10.7 0.0 0.0
19:03 17.8 5.7 45 1021.3 8.3 NW 8.3 0.0 0.0
19:04 17.7 5.3 44 1021.2 9.8 NW 9.8 0.0 0.0
19:05 17.6 5.2 44 1021.2 7.6 N 9.8 0.0 0.0
19:06 17.6 5.2 44 1021.2 7.6 N 9.8 0.0 0.0
19:07 17.6 5.5 45 1021.2 6.9 NW 9.8 0.0 0.0
19:08 17.5 5.4 45 1021.2 4.5 N 9.8 0.0 0.0
19:09 17.5 5.4 45 1021.2 4.5 W 9.8 0.0 0.0
19:10 17.5 5.8 46 1021.3 6.0 NW 9.8 0.0 0.0
19:11 17.5 5.8 46 1021.3 6.9 NW 9.8 0.0 0.0
19:12 17.4 5.7 46 1021.2 5.4 NW 9.8 0.0 0.0
19:13 17.4 5.7 46 1021.0 7.6 N 9.8 0.0 0.0
19:14 17.4 5.7 46 1021.0 7.6 N 9.8 0.0 0.0
19:15 17.4 5.7 46 1021.1 4.5 SE 7.6 0.0 0.0
19:16 17.4 6.0 47 1021.3 5.4 NE 7.6 0.0 0.0
19:17 17.4 6.0 47 1021.3 6.0 NE 7.6 0.0 0.0
19:18 17.4 6.0 47 1021.2 4.5 WSW 7.6 0.0 0.0
19:19 17.4 6.0 47 1021.2 3.8 NE 7.6 0.0 0.0
19:20 17.4 6.0 47 1021.3 4.5 NW 7.6 0.0 0.0
19:21 17.3 5.9 47 1021.3 8.3 NW 8.3 0.0 0.0
19:22 17.3 5.9 47 1021.3 6.0 N 8.3 0.0 0.0
19:23 17.3 5.9 47 1021.2 6.0 N 9.8 0.0 0.0
19:24 17.3 5.9 47 1021.3 9.8 N 9.8 0.0 0.0
19:25 17.3 5.9 47 1021.3 6.0 NW 9.8 0.0 0.0
19:26 17.2 5.8 47 1021.3 6.9 NW 9.8 0.0 0.0
19:28 17.1 6.0 48 1021.4 4.5 NW 9.8 0.0 0.0
19:29 17.1 6.0 48 1021.2 4.5 N 9.8 0.0 0.0
19:30 17.1 6.0 48 1021.2 6.0 NW 9.8 0.0 0.0
19:31 17.0 5.9 48 1021.3 5.4 SW 9.8 0.0 0.0
19:32 17.0 6.2 49 1021.2 9.2 S 9.8 0.0 0.0
19:33 17.0 6.2 49 1021.2 9.2 N 9.8 0.0 0.0
19:34 17.0 6.2 49 1021.1 7.6 SE 9.8 0.0 0.0
19:35 17.0 6.2 49 1021.3 8.3 NW 9.8 0.0 0.0
19:36 16.9 6.1 49 1021.3 6.0 NE 9.2 0.0 0.0
19:37 16.9 6.1 49 1021.2 4.5 NW 9.2 0.0 0.0
19:38 16.9 6.1 49 1021.4 6.0 NE 9.2 0.0 0.0
19:39 16.9 6.1 49 1021.2 6.9 N 9.2 0.0 0.0
19:40 16.9 6.1 49 1021.3 5.4 NW 9.2 0.0 0.0
19:41 16.9 6.1 49 1021.3 7.6 N 9.2 0.0 0.0
19:42 16.8 6.0 49 1021.3 5.4 W 9.2 0.0 0.0
19:43 16.8 6.0 49 1021.4 5.4 SW 8.3 0.0 0.0
19:44 16.8 6.0 49 1021.4 6.9 N 8.3 0.0 0.0
19:46 16.8 6.3 50 1021.4 5.4 W 7.6 0.0 0.0
19:47 16.8 6.3 50 1021.4 5.4 N 7.6 0.0 0.0
19:48 16.8 6.3 50 1021.4 6.9 N 7.6 0.0 0.0
19:49 16.8 6.3 50 1021.3 6.0 NW 7.6 0.0 0.0
19:50 16.8 6.3 50 1021.2 6.0 N 7.6 0.0 0.0
19:51 16.8 6.3 50 1021.4 4.5 NW 7.6 0.0 0.0
19:52 16.8 6.3 50 1021.3 5.4 NW 6.9 0.0 0.0
19:53 16.8 6.3 50 1021.3 6.0 NW 6.9 0.0 0.0
19:54 16.8 6.3 50 1021.3 6.0 N 6.9 0.0 0.0
19:55 16.7 6.2 50 1021.2 3.8 N 6.9 0.0 0.0
19:56 16.7 6.2 50 1021.3 6.9 NW 6.9 0.0 0.0
19:57 16.7 6.2 50 1021.4 6.0 NW 6.9 0.0 0.0
19:58 16.7 6.2 50 1021.4 3.8 NW 6.9 0.0 0.0
19:59 16.7 6.5 51 1021.6 3.8 NW 6.9 0.0 0.0
20:00 16.6 6.4 51 1021.3 3.8 N 6.9 0.0 0.0
20:01 16.6 6.4 51 1021.5 3.8 N 6.9 0.0 0.0
20:02 16.6 6.4 51 1021.4 6.0 N 6.9 0.0 0.0
20:03 16.6 6.4 51 1021.3 5.4 E 6.9 0.0 0.0
20:04 16.6 6.4 51 1021.4 3.8 W 6.9 0.0 0.0
20:05 16.6 6.4 51 1021.4 3.8 NW 6.9 0.0 0.0
20:07 16.5 6.3 51 1021.4 6.0 WNW 6.0 0.0 0.0
20:08 16.5 6.3 51 1021.4 6.9 NW 6.9 0.0 0.0
20:09 16.5 6.3 51 1021.4 4.5 NW 6.9 0.0 0.0
20:10 16.5 6.3 51 1021.5 3.8 NW 6.9 0.0 0.0
20:11 16.4 6.2 51 1021.4 3.1 N 6.9 0.0 0.0
20:12 16.4 6.2 51 1021.4 2.2 NE 6.9 0.0 0.0
20:13 16.4 6.2 51 1021.4 3.1 N 6.9 0.0 0.0
20:14 16.4 6.2 51 1021.2 3.1 NW 6.9 0.0 0.0
20:15 16.3 6.2 51 1021.4 2.2 NE 6.9 0.0 0.0
20:16 16.3 6.2 51 1021.3 3.8 NE 6.9 0.0 0.0
20:17 16.2 6.3 52 1021.4 2.2 N 6.9 0.0 0.0
20:18 16.2 6.3 52 1021.3 2.2 NW 6.9 0.0 0.0
20:19 16.1 6.2 52 1021.4 3.8 NW 4.5 0.0 0.0
20:20 16.1 6.2 52 1021.5 3.1 W 3.8 0.0 0.0
20:21 16.0 6.2 52 1021.5 2.2 WNW 3.8 0.0 0.0
20:22 16.0 6.2 52 1021.4 1.6 NW 3.8 0.0 0.0
20:23 16.0 6.2 52 1021.5 3.8 NW 3.8 0.0 0.0
20:24 15.9 6.1 52 1021.5 3.8 NW 3.8 0.0 0.0
20:26 15.8 6.2 53 1021.6 3.8 NW 3.8 0.0 0.0
20:27 15.8 6.2 53 1021.6 3.1 N 3.8 0.0 0.0
20:28 15.7 6.2 53 1021.4 3.1 NW 3.8 0.0 0.0
20:29 15.7 6.2 53 1021.5 3.1 NW 3.8 0.0 0.0
20:30 15.6 6.1 53 1021.5 2.2 N 3.8 0.0 0.0
20:31 15.6 6.1 53 1021.5 2.2 W 3.8 0.0 0.0
20:32 15.5 6.0 53 1021.5 2.2 NW 3.8 0.0 0.0
20:33 15.5 6.0 53 1021.5 3.1 NW 3.8 0.0 0.0
20:34 15.4 6.1 54 1021.5 3.8 NW 3.8 0.0 0.0
20:35 15.3 6.1 54 1021.5 1.6 WNW 3.8 0.0 0.0
20:36 15.3 6.1 54 1021.5 1.6 N 3.8 0.0 0.0
20:37 15.2 6.0 54 1021.5 2.2 N 3.8 0.0 0.0
20:38 15.2 6.0 54 1021.6 1.6 NW 3.8 0.0 0.0
20:39 15.1 5.9 54 1021.6 3.1 NW 3.8 0.0 0.0
20:40 15.0 5.8 54 1021.4 3.1 N 3.8 0.0 0.0
20:41 15.0 5.8 54 1021.6 2.2 N 3.8 0.0 0.0
20:42 14.9 5.9 55 1021.6 3.1 N 3.8 0.0 0.0
20:43 14.8 5.9 55 1021.6 3.8 NW 3.8 0.0 0.0
20:44 14.8 5.9 55 1021.4 3.8 N 3.8 0.0 0.0
20:45 14.6 5.7 55 1021.6 3.8 NW 3.8 0.0 0.0
20:47 14.5 5.8 56 1021.5 2.2 N 3.8 0.0 0.0
20:48 14.5 5.8 56 1021.7 3.1 NE 3.8 0.0 0.0
20:49 14.4 5.7 56 1021.6 3.8 NW 3.8 0.0 0.0
20:50 14.3 5.6 56 1021.5 4.5 NW 4.5 0.0 0.0
20:51 14.3 5.6 56 1021.5 3.1 N 4.5 0.0 0.0
20:52 14.2 5.8 57 1021.6 2.2 NW 4.5 0.0 0.0
20:53 14.2 5.8 57 1021.6 3.1 NW 4.5 0.0 0.0
20:54 14.1 5.7 57 1021.7 2.2 N 4.5 0.0 0.0
20:55 14.1 5.7 57 1021.7 3.1 N 4.5 0.0 0.0
20:56 14.0 5.6 57 1021.7 2.2 N 4.5 0.0 0.0
20:57 13.9 5.5 57 1021.5 3.1 NW 4.5 0.0 0.0
20:58 13.9 5.5 57 1021.7 2.2 N 4.5 0.0 0.0
20:59 13.8 5.7 58 1021.4 3.8 N 4.5 0.0 0.0
21:00 13.8 5.7 58 1021.7 1.6 NW 4.5 0.0 0.0
21:01 13.8 5.7 58 1021.6 1.6 NW 3.8 0.0 0.0
21:03 13.8 5.7 58 1021.5 1.6 NW 3.8 0.0 0.0
21:04 13.8 5.7 58 1021.5 1.6 NW 3.8 0.0 0.0
21:05 13.5 5.6 59 1021.6 0.0 N 3.8 0.0 0.0
21:06 13.5 5.6 59 1021.6 0.0 NW 3.8 0.0 0.0
21:08 13.4 5.6 59 1021.5 1.6 NW 3.8 0.0 0.0
21:09 13.4 5.6 59 1021.6 2.2 N 2.2 0.0 0.0
21:10 13.3 5.5 59 1021.7 2.2 NNE 2.2 0.0 0.0
21:11 13.3 5.7 60 1021.7 1.6 N 2.2 0.0 0.0
21:12 13.2 5.6 60 1021.7 1.6 NW 2.2 0.0 0.0
21:13 13.2 5.6 60 1021.6 3.1 W 3.1 0.0 0.0
21:14 13.1 5.5 60 1021.7 2.2 N 3.1 0.0 0.0
21:15 13.1 5.5 60 1021.6 3.8 NW 3.8 0.0 0.0
21:16 13.1 5.8 61 1021.7 3.1 N 3.8 0.0 0.0
21:17 13.1 5.8 61 1021.9 3.1 N 3.8 0.0 0.0
21:18 13.0 5.7 61 1021.8 3.1 NW 3.8 0.0 0.0
21:19 13.0 5.7 61 1021.6 2.2 N 3.8 0.0 0.0
21:20 13.0 5.7 61 1021.6 2.2 N 3.8 0.0 0.0
21:21 12.9 5.6 61 1021.7 3.1 NW 3.8 0.0 0.0
21:22 12.9 5.6 61 1021.8 3.8 NW 3.8 0.0 0.0
21:23 12.8 5.5 61 1021.8 6.0 NW 6.0 0.0 0.0
21:24 12.8 5.7 62 1021.6 3.8 N 6.0 0.0 0.0
21:25 12.7 5.6 62 1021.7 1.6 NW 6.0 0.0 0.0
21:26 12.7 5.6 62 1021.7 2.2 NW 6.0 0.0 0.0
21:27 12.7 5.6 62 1021.7 1.6 N 6.0 0.0 0.0
21:29 12.6 5.5 62 1021.8 3.1 N 6.0 0.0 0.0
21:30 12.6 5.7 63 1021.8 4.5 N 6.0 0.0 0.0
21:31 12.6 5.7 63 1021.7 2.2 W 6.0 0.0 0.0
21:32 12.5 5.7 63 1021.5 3.1 NE 6.0 0.0 0.0
21:33 12.5 5.7 63 1021.6 2.2 NE 4.5 0.0 0.0
21:34 12.5 5.7 63 1021.6 2.2 NE 4.5 0.0 0.0
21:35 12.4 5.6 63 1021.6 2.2 N 4.5 0.0 0.0
21:36 12.4 5.6 63 1021.6 2.2 N 4.5 0.0 0.0
21:37 12.4 5.6 63 1021.6 1.6 W 4.5 0.0 0.0
21:38 12.4 5.6 63 1021.7 2.2 N 4.5 0.0 0.0
21:39 12.3 5.7 64 1021.7 2.2 N 4.5 0.0 0.0
21:40 12.3 5.7 64 1021.6 0.0 NE 4.5 0.0 0.0
21:41 12.3 5.7 64 1021.5 1.6 NW 3.1 0.0 0.0
21:42 12.2 5.6 64 1021.7 3.1 N 3.1 0.0 0.0
21:43 12.2 5.6 64 1021.7 3.1 N 3.8 0.0 0.0
21:44 12.2 5.6 64 1021.7 2.2 WNW 3.8 0.0 0.0
21:45 12.2 5.8 65 1021.8 2.2 N 3.8 0.0 0.0
21:46 12.2 5.8 65 1021.7 3.1 NW 3.8 0.0 0.0
21:47 12.2 5.8 65 1021.7 2.2 N 3.8 0.0 0.0
21:48 12.1 5.7 65 1021.7 2.2 NW 3.8 0.0 0.0
21:50 12.1 5.7 65 1021.6 0.7 N 3.8 0.0 0.0
21:51 12.1 5.7 65 1021.8 1.6 N 3.8 0.0 0.0
21:52 12.0 5.8 66 1021.8 0.7 WNW 3.8 0.0 0.0
21:53 12.0 5.8 66 1021.7 3.8 NW 3.8 0.0 0.0
21:54 12.0 5.8 66 1021.7 3.8 NW 3.8 0.0 0.0
21:55 12.0 5.8 66 1021.6 1.6 NW 3.8 0.0 0.0
21:56 12.0 5.8 66 1021.7 1.6 NW 3.8 0.0 0.0
21:57 11.9 5.8 66 1021.7 1.6 N 3.8 0.0 0.0
21:58 11.9 5.8 66 1021.8 0.7 N 3.8 0.0 0.0
21:59 11.9 5.8 66 1021.7 2.2 N 3.8 0.0 0.0
22:00 11.9 5.8 66 1021.8 1.6 NW 3.8 0.0 0.0
22:01 11.9 5.8 66 1021.8 1.6 NW 3.8 0.0 0.0
22:02 11.9 5.8 66 1021.7 1.6 NW 3.8 0.0 0.0
22:03 11.9 5.8 66 1021.8 1.6 NW 3.8 0.0 0.0
22:04 11.9 5.8 66 1021.8 1.6 NW 3.1 0.0 0.0
22:05 11.8 5.9 67 1021.8 1.6 N 3.1 0.0 0.0
22:06 11.8 5.9 67 1021.7 1.6 NW 3.1 0.0 0.0
22:07 11.8 5.9 67 1021.8 1.6 N 3.1 0.0 0.0
22:09 11.8 5.9 67 1021.9 0.7 NW 2.2 0.0 0.0
22:10 11.7 5.8 67 1021.6 0.7 NW 2.2 0.0 0.0
22:11 11.8 5.9 67 1021.7 1.6 N 2.2 0.0 0.0
22:12 11.7 5.8 67 1021.8 0.0 NE 2.2 0.0 0.0
22:13 11.7 6.0 68 1021.8 0.0 NW 2.2 0.0 0.0
22:14 11.7 6.0 68 1021.8 0.0 NW 2.2 0.0 0.0
22:15 11.7 6.0 68 1021.9 0.0 N 2.2 0.0 0.0
22:16 11.7 6.0 68 1021.7 0.0 N 2.2 0.0 0.0
22:17 11.7 6.0 68 1021.8 0.0 NW 2.2 0.0 0.0
22:18 11.7 6.0 68 1021.8 0.0 NW 2.2 0.0 0.0
22:19 11.6 5.9 68 1021.7 1.6 W 2.2 0.0 0.0
22:20 11.6 5.9 68 1021.7 1.6 N 2.2 0.0 0.0
22:21 11.6 5.9 68 1021.6 0.0 NW 2.2 0.0 0.0
22:22 11.6 5.9 68 1021.7 0.0 NW 2.2 0.0 0.0
22:23 11.6 5.9 68 1021.8 1.6 NW 2.2 0.0 0.0
22:24 11.5 6.0 69 1021.7 1.6 N 2.2 0.0 0.0
22:25 11.5 6.0 69 1021.8 0.7 NW 2.2 0.0 0.0
22:26 11.5 6.0 69 1021.8 2.2 NW 2.2 0.0 0.0
22:27 11.5 6.0 69 1021.7 3.1 N 3.1 0.0 0.0
22:29 11.5 6.0 69 1021.7 1.6 NW 3.1 0.0 0.0
22:30 11.5 6.0 69 1021.6 2.2 N 3.1 0.0 0.0
22:31 11.5 6.0 69 1021.8 1.6 NW 3.1 0.0 0.0
22:32 11.5 6.0 69 1021.7 0.0 NW 3.1 0.0 0.0
22:33 11.5 6.0 69 1021.7 0.0 NW 3.1 0.0 0.0
22:34 11.5 6.0 69 1021.7 0.0 NW 3.1 0.0 0.0
22:35 11.4 5.9 69 1021.7 0.0 N 3.1 0.0 0.0
22:36 11.4 5.9 69 1021.6 0.0 NW 3.1 0.0 0.0
22:37 11.4 5.9 69 1021.7 0.0 NW 3.1 0.0 0.0
22:38 11.4 6.1 70 1021.7 0.0 N 2.2 0.0 0.0
22:39 11.4 6.1 70 1021.7 0.0 NW 2.2 0.0 0.0
22:40 11.4 6.1 70 1021.8 1.6 NW 2.2 0.0 0.0
22:41 11.4 6.1 70 1021.6 1.6 N 1.6 0.0 0.0
22:42 11.4 6.1 70 1021.8 0.0 N 1.6 0.0 0.0
22:43 11.3 6.0 70 1021.7 1.6 NW 1.6 0.0 0.0
22:44 11.3 6.0 70 1021.8 0.7 N 1.6 0.0 0.0
22:45 11.4 6.1 70 1021.7 0.7 NW 1.6 0.0 0.0
22:47 11.4 6.1 70 1021.8 0.0 N 1.6 0.0 0.0
22:48 11.4 6.3 71 1021.6 0.0 N 1.6 0.0 0.0
22:49 11.3 6.2 71 1021.8 0.0 NW 1.6 0.0 0.0
22:50 11.3 6.2 71 1021.7 0.0 N 1.6 0.0 0.0
22:51 11.3 6.2 71 1021.6 0.0 N 1.6 0.0 0.0
22:52 11.4 6.3 71 1021.5 0.0 NW 1.6 0.0 0.0
22:53 11.3 6.2 71 1021.5 0.0 N 1.6 0.0 0.0
22:54 11.4 6.3 71 1021.7 0.0 NW 1.6 0.0 0.0
22:55 11.4 6.3 71 1021.8 0.0 NW 0.7 0.0 0.0
22:56 11.3 6.2 71 1021.8 0.0 N 0.0 0.0 0.0
22:57 11.3 6.2 71 1021.7 0.0 N 0.0 0.0 0.0
22:58 11.3 6.2 71 1021.6 0.0 NW 0.0 0.0 0.0
22:59 11.3 6.2 71 1021.7 0.0 NW 0.0 0.0 0.0
23:00 11.3 6.2 71 1021.5 0.0 N 0.0 0.0 0.0
23:01 11.3 6.2 71 1021.6 0.0 N 0.0 0.0 0.0
23:02 11.3 6.2 71 1021.6 0.0 N 0.0 0.0 0.0
23:03 11.3 6.2 71 1021.7 0.0 N 0.0 0.0 0.0
23:04 11.3 6.2 71 1021.7 0.0 N 0.0 0.0 0.0
23:05 11.3 6.2 71 1021.6 0.0 N 0.0 0.0 0.0
23:06 11.3 6.2 71 1021.6 0.0 N 0.0 0.0 0.0
23:07 11.2 6.3 72 1021.7 0.0 N 0.0 0.0 0.0
23:09 11.2 6.3 72 1021.5 0.0 N 0.0 0.0 0.0
23:10 11.2 6.3 72 1021.6 0.0 NW 0.0 0.0 0.0
23:11 11.2 6.3 72 1021.6 0.7 NW 0.7 0.0 0.0
23:12 11.3 6.4 72 1021.7 0.0 NW 0.7 0.0 0.0
23:13 11.2 6.3 72 1021.6 0.0 NW 0.7 0.0 0.0
23:14 11.2 6.3 72 1021.7 0.0 NW 0.7 0.0 0.0
23:15 11.2 6.5 73 1021.6 0.0 NE 0.7 0.0 0.0
23:16 11.2 6.5 73 1021.6 0.0 N 0.7 0.0 0.0
23:17 11.2 6.5 73 1021.6 0.0 N 0.7 0.0 0.0
23:18 11.2 6.5 73 1021.6 0.0 NW 0.7 0.0 0.0
23:19 11.2 6.5 73 1021.6 0.0 N 0.7 0.0 0.0
23:20 11.2 6.5 73 1021.6 0.0 N 0.7 0.0 0.0
23:21 11.2 6.5 73 1021.6 0.0 N 0.7 0.0 0.0
23:22 11.2 6.5 73 1021.6 0.0 N 0.0 0.0 0.0
23:23 11.2 6.5 73 1021.8 0.0 N 0.0 0.0 0.0
23:24 11.2 6.5 73 1021.5 0.0 N 0.0 0.0 0.0
23:25 11.2 6.5 73 1021.7 0.0 NE 0.0 0.0 0.0
23:26 11.2 6.5 73 1021.7 0.0 NW 0.0 0.0 0.0
23:27 11.2 6.5 73 1021.6 0.0 N 0.0 0.0 0.0
23:28 11.2 6.5 73 1021.6 0.0 N 0.0 0.0 0.0
23:29 11.2 6.5 73 1021.6 0.0 N 0.0 0.0 0.0
23:30 11.2 6.5 73 1021.5 0.0 NW 0.0 0.0 0.0
23:31 11.2 6.5 73 1021.5 0.0 N 0.0 0.0 0.0
23:32 11.2 6.5 73 1021.6 0.0 N 0.0 0.0 0.0
23:33 11.2 6.5 73 1021.7 0.0 WNW 0.0 0.0 0.0
23:35 11.2 6.5 73 1021.6 0.0 N 0.0 0.0 0.0
23:36 11.2 6.5 73 1021.6 0.0 W 0.0 0.0 0.0
23:37 11.2 6.7 74 1021.7 0.0 NW 0.0 0.0 0.0
23:38 11.2 6.7 74 1021.5 0.0 N 0.0 0.0 0.0
23:39 11.2 6.7 74 1021.7 0.0 N 0.0 0.0 0.0
23:40 11.2 6.7 74 1021.7 0.0 NW 0.0 0.0 0.0
23:41 11.2 6.7 74 1021.5 0.0 NW 0.0 0.0 0.0
23:42 11.2 6.7 74 1021.7 1.6 N 1.6 0.0 0.0
23:43 11.2 6.7 74 1021.5 1.6 NW 1.6 0.0 0.0
23:44 11.2 6.7 74 1021.6 2.2 N 2.2 0.0 0.0
23:45 11.2 6.7 74 1021.4 2.2 NW 2.2 0.0 0.0
23:46 11.2 6.7 74 1021.5 0.0 N 2.2 0.0 0.0
23:47 11.2 6.7 74 1021.6 0.0 N 2.2 0.0 0.0
23:48 11.2 6.7 74 1021.6 0.0 N 2.2 0.0 0.0
23:49 11.2 6.7 74 1021.5 1.6 NW 2.2 0.0 0.0
23:50 11.2 6.7 74 1021.5 1.6 NE 2.2 0.0 0.0
23:51 11.2 6.7 74 1021.5 0.0 N 2.2 0.0 0.0
23:52 11.2 6.7 74 1021.5 0.0 NE 2.2 0.0 0.0
23:53 11.1 6.6 74 1021.5 0.0 N 2.2 0.0 0.0
23:55 11.1 6.6 74 1021.4 0.7 N 1.6 0.0 0.0
23:56 11.1 6.6 74 1021.5 2.2 N 2.2 0.0 0.0
23:57 11.1 6.6 74 1021.5 0.7 N 2.2 0.0 0.0
23:58 11.1 6.6 74 1021.4 0.7 E 2.2 0.0 0.0
23:59 11.1 6.6 74 1021.3 0.7 SE 2.2 0.0 0.0

UK - WEATHER STATION TOPSITES - UK World Weather Websites

This is a private weather station, never base important decisions or events on data from this weather station. Although every effort has been made to make the data as accurate as possible it does not meet MetOffice standards. It is proved as a guide of local weather conditions. We accept no liability for any loss which may arise from use of the data.

Copyright © Carnkie Weather 2009 - 2019.